Time,TemperatureF,DewpointF,PressureIn,WindDirection,WindDirectionDegrees,WindSpeedMPH,WindSpeedGustMPH,Humidity,HourlyPrecipIn,Conditions,Clouds,dailyrainin,SoftwareType,DateUTC
2013-05-08 00:00:00,59.9,50.1,29.56,WSW,240,0.0,0.0,70,0.00,,---,0.00,VWS V13.01,2013-05-08 07:00:00,
2013-05-08 00:01:00,59.9,50.1,29.56,WSW,240,0.0,0.0,70,0.00,,---,0.00,VWS V13.01,2013-05-08 07:01:00,
2013-05-08 00:02:00,59.9,50.1,29.56,WSW,240,0.0,0.0,70,0.00,,---,0.00,VWS V13.01,2013-05-08 07:02:00,
2013-05-08 00:05:00,59.9,50.1,29.56,WSW,240,0.0,0.0,70,0.00,,---,0.00,VWS V13.01,2013-05-08 07:05:00,
2013-05-08 00:06:00,59.9,50.1,29.56,WSW,240,0.0,0.0,70,0.00,,---,0.00,VWS V13.01,2013-05-08 07:06:00,
2013-05-08 00:07:00,59.9,50.1,29.56,WSW,240,0.0,0.0,70,0.00,,---,0.00,VWS V13.01,2013-05-08 07:07:00,
2013-05-08 00:10:00,59.7,49.9,29.56,WSW,240,0.0,0.0,70,0.00,,---,0.00,VWS V13.01,2013-05-08 07:10:00,
2013-05-08 00:11:00,59.7,49.9,29.56,WSW,240,0.0,0.0,70,0.00,,---,0.00,VWS V13.01,2013-05-08 07:11:00,
2013-05-08 00:12:00,59.5,49.8,29.56,WSW,240,0.0,0.0,70,0.00,,---,0.00,VWS V13.01,2013-05-08 07:12:00,
2013-05-08 00:15:00,59.4,50.0,29.59,WSW,240,0.0,0.0,71,0.00,,---,0.00,VWS V13.01,2013-05-08 07:15:00,
2013-05-08 00:16:00,59.4,50.0,29.59,WSW,240,0.0,0.0,71,0.00,,---,0.00,VWS V13.01,2013-05-08 07:16:00,
2013-05-08 00:17:00,59.4,50.0,29.59,WSW,240,0.0,0.0,71,0.00,,---,0.00,VWS V13.01,2013-05-08 07:17:00,
2013-05-08 00:20:00,59.4,50.0,29.59,WSW,240,0.0,0.0,71,0.00,,---,0.00,VWS V13.01,2013-05-08 07:20:00,
2013-05-08 00:21:00,59.4,50.0,29.59,WSW,240,0.0,0.0,71,0.00,,---,0.00,VWS V13.01,2013-05-08 07:21:00,
2013-05-08 00:22:00,59.4,50.0,29.59,WSW,240,0.0,0.0,71,0.00,,---,0.00,VWS V13.01,2013-05-08 07:22:00,
2013-05-08 00:25:00,59.4,50.0,29.59,WSW,240,0.0,0.0,71,0.00,,---,0.00,VWS V13.01,2013-05-08 07:25:00,
2013-05-08 00:26:00,59.4,50.0,29.59,WSW,240,0.0,0.0,71,0.00,,---,0.00,VWS V13.01,2013-05-08 07:26:00,
2013-05-08 00:28:00,59.2,49.8,29.59,WSW,240,0.0,0.0,71,0.00,,---,0.00,VWS V13.01,2013-05-08 07:28:00,
2013-05-08 00:31:00,59.0,49.6,29.59,WSW,240,0.0,0.0,71,0.00,,---,0.00,VWS V13.01,2013-05-08 07:31:00,
2013-05-08 00:32:00,59.0,49.6,29.59,WSW,240,0.0,0.0,71,0.00,,---,0.00,VWS V13.01,2013-05-08 07:32:00,
2013-05-08 00:33:00,59.0,49.6,29.59,WSW,240,0.0,0.0,71,0.00,,---,0.00,VWS V13.01,2013-05-08 07:33:00,
2013-05-08 00:36:00,58.8,49.5,29.59,WSW,240,0.0,0.0,71,0.00,,---,0.00,VWS V13.01,2013-05-08 07:36:00,
2013-05-08 00:37:00,58.8,49.5,29.59,WSW,240,0.0,0.0,71,0.00,,---,0.00,VWS V13.01,2013-05-08 07:37:00,
2013-05-08 00:38:00,58.8,49.8,29.59,WSW,240,0.0,0.0,72,0.00,,---,0.00,VWS V13.01,2013-05-08 07:38:00,
2013-05-08 00:41:00,58.8,49.8,29.59,WSW,240,0.0,0.0,72,0.00,,---,0.00,VWS V13.01,2013-05-08 07:41:00,
2013-05-08 00:42:00,58.8,49.8,29.59,WSW,240,0.0,0.0,72,0.00,,---,0.00,VWS V13.01,2013-05-08 07:42:00,
2013-05-08 00:43:00,58.6,49.7,29.59,WSW,240,0.0,0.0,72,0.00,,---,0.00,VWS V13.01,2013-05-08 07:43:00,
2013-05-08 00:46:00,58.5,49.5,29.59,WSW,240,0.0,0.0,72,0.00,,---,0.00,VWS V13.01,2013-05-08 07:46:00,
2013-05-08 00:47:00,58.5,49.5,29.59,WSW,240,0.0,0.0,72,0.00,,---,0.00,VWS V13.01,2013-05-08 07:47:00,
2013-05-08 00:48:00,58.3,49.3,29.59,West,275,0.0,0.0,72,0.00,,---,0.00,VWS V13.01,2013-05-08 07:48:00,
2013-05-08 00:51:00,58.3,49.3,29.59,West,275,0.0,0.0,72,0.00,,---,0.00,VWS V13.01,2013-05-08 07:51:00,
2013-05-08 00:52:00,58.3,49.3,29.59,West,275,0.0,0.0,72,0.00,,---,0.00,VWS V13.01,2013-05-08 07:52:00,
2013-05-08 00:53:00,58.3,49.3,29.59,West,275,0.0,0.0,72,0.00,,---,0.00,VWS V13.01,2013-05-08 07:53:00,
2013-05-08 00:56:00,58.3,49.3,29.59,West,275,0.0,0.0,72,0.00,,---,0.00,VWS V13.01,2013-05-08 07:56:00,
2013-05-08 00:57:00,58.3,49.3,29.59,West,268,0.0,0.0,72,0.00,,---,0.00,VWS V13.01,2013-05-08 07:57:00,
2013-05-08 00:58:00,58.3,49.3,29.59,West,268,0.0,0.0,72,0.00,,---,0.00,VWS V13.01,2013-05-08 07:58:00,
2013-05-08 01:01:00,58.3,49.3,29.59,SSW,207,0.0,0.0,72,0.00,,---,0.00,VWS V13.01,2013-05-08 08:01:00,
2013-05-08 01:02:00,58.3,49.3,29.59,SSW,207,0.0,0.0,72,0.00,,---,0.00,VWS V13.01,2013-05-08 08:02:00,
2013-05-08 01:03:00,58.3,49.3,29.59,SSW,207,0.0,0.0,72,0.00,,---,0.00,VWS V13.01,2013-05-08 08:03:00,
2013-05-08 01:04:00,58.1,49.1,29.59,West,264,2.7,2.7,72,0.00,,---,0.00,VWS V13.01,2013-05-08 08:04:00,
2013-05-08 01:07:00,58.1,49.5,29.59,West,266,0.0,0.0,73,0.00,,---,0.00,VWS V13.01,2013-05-08 08:07:00,
2013-05-08 01:08:00,58.1,49.5,29.59,West,262,0.0,0.0,73,0.00,,---,0.00,VWS V13.01,2013-05-08 08:08:00,
2013-05-08 01:09:00,58.1,49.5,29.59,West,262,0.0,0.0,73,0.00,,---,0.00,VWS V13.01,2013-05-08 08:09:00,
2013-05-08 01:12:00,57.9,49.3,29.59,West,265,0.0,0.0,73,0.00,,---,0.00,VWS V13.01,2013-05-08 08:12:00,
2013-05-08 01:13:00,58.1,49.1,29.59,West,265,0.0,0.0,72,0.00,,---,0.00,VWS V13.01,2013-05-08 08:13:00,
2013-05-08 01:14:00,58.1,49.1,29.59,West,265,0.0,0.0,72,0.00,,---,0.00,VWS V13.01,2013-05-08 08:14:00,
2013-05-08 01:17:00,58.1,49.1,29.59,West,264,0.0,0.0,72,0.00,,---,0.00,VWS V13.01,2013-05-08 08:17:00,
2013-05-08 01:18:00,58.1,49.1,29.59,West,264,0.0,0.0,72,0.00,,---,0.00,VWS V13.01,2013-05-08 08:18:00,
2013-05-08 01:19:00,57.9,49.0,29.59,West,264,0.0,0.0,72,0.00,,---,0.00,VWS V13.01,2013-05-08 08:19:00,
2013-05-08 01:22:00,57.9,49.0,29.59,West,264,0.0,0.0,72,0.00,,---,0.00,VWS V13.01,2013-05-08 08:22:00,
2013-05-08 01:23:00,57.9,49.0,29.59,West,264,0.0,0.0,72,0.00,,---,0.00,VWS V13.01,2013-05-08 08:23:00,
2013-05-08 01:24:00,57.9,49.0,29.59,West,264,0.0,0.0,72,0.00,,---,0.00,VWS V13.01,2013-05-08 08:24:00,
2013-05-08 01:27:00,57.9,49.0,29.59,West,264,0.0,0.0,72,0.00,,---,0.00,VWS V13.01,2013-05-08 08:27:00,
2013-05-08 01:28:00,57.7,48.8,29.59,West,264,0.0,0.0,72,0.00,,---,0.00,VWS V13.01,2013-05-08 08:28:00,
2013-05-08 01:29:00,57.7,48.8,29.59,West,264,0.0,0.0,72,0.00,,---,0.00,VWS V13.01,2013-05-08 08:29:00,
2013-05-08 01:32:00,57.7,48.8,29.59,West,264,0.0,0.0,72,0.00,,---,0.00,VWS V13.01,2013-05-08 08:32:00,
2013-05-08 01:33:00,57.7,48.8,29.59,West,264,0.0,0.0,72,0.00,,---,0.00,VWS V13.01,2013-05-08 08:33:00,
2013-05-08 01:34:00,57.7,48.8,29.59,West,264,0.0,0.0,72,0.00,,---,0.00,VWS V13.01,2013-05-08 08:34:00,
2013-05-08 01:37:00,57.7,48.8,29.59,West,264,0.0,0.0,72,0.00,,---,0.00,VWS V13.01,2013-05-08 08:37:00,
2013-05-08 01:39:00,57.6,48.6,29.59,West,264,0.0,0.0,72,0.00,,---,0.00,VWS V13.01,2013-05-08 08:39:00,
2013-05-08 01:40:00,57.6,48.6,29.59,WSW,243,2.7,2.7,72,0.00,,---,0.00,VWS V13.01,2013-05-08 08:40:00,
2013-05-08 01:42:00,57.6,48.6,29.59,WSW,257,0.0,0.0,72,0.00,,---,0.00,VWS V13.01,2013-05-08 08:42:00,
2013-05-08 01:44:00,57.4,48.8,29.59,West,277,0.0,0.0,73,0.00,,---,0.00,VWS V13.01,2013-05-08 08:44:00,
2013-05-08 01:45:00,57.4,48.8,29.59,West,277,0.0,0.0,73,0.00,,---,0.00,VWS V13.01,2013-05-08 08:45:00,
2013-05-08 01:47:00,57.4,48.8,29.59,SSW,195,0.0,0.0,73,0.00,,---,0.00,VWS V13.01,2013-05-08 08:47:00,
2013-05-08 01:48:00,57.4,48.8,29.59,SSW,195,0.0,0.0,73,0.00,,---,0.00,VWS V13.01,2013-05-08 08:48:00,
2013-05-08 01:49:00,57.4,48.8,29.59,SSW,195,0.0,0.0,73,0.00,,---,0.00,VWS V13.01,2013-05-08 08:49:00,
2013-05-08 01:50:00,57.4,48.8,29.59,SSW,195,0.0,0.0,73,0.00,,---,0.00,VWS V13.01,2013-05-08 08:50:00,
2013-05-08 01:52:00,57.4,48.8,29.59,West,281,0.0,0.0,73,0.00,,---,0.00,VWS V13.01,2013-05-08 08:52:00,
2013-05-08 01:53:00,57.4,48.8,29.59,West,281,0.0,0.0,73,0.00,,---,0.00,VWS V13.01,2013-05-08 08:53:00,
2013-05-08 01:55:00,57.2,48.6,29.59,West,281,0.0,0.0,73,0.00,,---,0.00,VWS V13.01,2013-05-08 08:55:00,
2013-05-08 01:58:00,57.2,48.6,29.59,West,281,0.0,0.0,73,0.00,,---,0.00,VWS V13.01,2013-05-08 08:58:00,
2013-05-08 02:00:00,57.2,48.6,29.59,West,281,0.0,0.0,73,0.00,,---,0.00,VWS V13.01,2013-05-08 09:00:00,
2013-05-08 02:03:00,57.2,48.3,29.59,West,281,0.0,0.0,72,0.00,,---,0.00,VWS V13.01,2013-05-08 09:03:00,
2013-05-08 02:05:00,57.0,48.5,29.59,West,281,0.0,0.0,73,0.00,,---,0.00,VWS V13.01,2013-05-08 09:05:00,
2013-05-08 02:08:00,56.8,48.3,29.59,West,281,0.0,0.0,73,0.00,,---,0.00,VWS V13.01,2013-05-08 09:08:00,
2013-05-08 02:10:00,56.8,48.3,29.59,West,281,0.0,0.0,73,0.00,,---,0.00,VWS V13.01,2013-05-08 09:10:00,
2013-05-08 02:13:00,56.8,48.3,29.62,West,281,0.0,0.0,73,0.00,,---,0.00,VWS V13.01,2013-05-08 09:13:00,
2013-05-08 02:15:00,56.8,48.3,29.62,West,262,3.1,3.1,73,0.00,,---,0.00,VWS V13.01,2013-05-08 09:15:00,
2013-05-08 02:18:00,56.7,48.1,29.62,WNW,288,2.7,2.7,73,0.00,,---,0.00,VWS V13.01,2013-05-08 09:18:00,
2013-05-08 02:20:00,56.7,48.1,29.62,WSW,254,0.0,0.0,73,0.00,,---,0.00,VWS V13.01,2013-05-08 09:20:00,
2013-05-08 02:21:00,56.7,48.1,29.62,WSW,254,0.0,0.0,73,0.00,,---,0.00,VWS V13.01,2013-05-08 09:21:00,
2013-05-08 02:23:00,56.3,48.1,29.62,WSW,256,0.0,0.0,74,0.00,,---,0.00,VWS V13.01,2013-05-08 09:23:00,
2013-05-08 02:25:00,56.3,48.1,29.62,WSW,258,0.0,0.0,74,0.00,,---,0.00,VWS V13.01,2013-05-08 09:25:00,
2013-05-08 02:26:00,56.3,48.1,29.62,WSW,258,0.0,0.0,74,0.00,,---,0.00,VWS V13.01,2013-05-08 09:26:00,
2013-05-08 02:28:00,56.3,48.1,29.62,WSW,258,0.0,0.0,74,0.00,,---,0.00,VWS V13.01,2013-05-08 09:28:00,
2013-05-08 02:30:00,56.3,48.1,29.62,WSW,258,0.0,0.0,74,0.00,,---,0.00,VWS V13.01,2013-05-08 09:30:00,
2013-05-08 02:31:00,56.3,48.1,29.62,WSW,258,0.0,0.0,74,0.00,,---,0.00,VWS V13.01,2013-05-08 09:31:00,
2013-05-08 02:34:00,56.3,48.1,29.62,WSW,258,0.0,0.0,74,0.00,,---,0.00,VWS V13.01,2013-05-08 09:34:00,
2013-05-08 02:35:00,56.1,48.0,29.62,WSW,258,0.0,0.0,74,0.00,,---,0.00,VWS V13.01,2013-05-08 09:35:00,
2013-05-08 02:36:00,56.1,48.0,29.62,WSW,258,0.0,0.0,74,0.00,,---,0.00,VWS V13.01,2013-05-08 09:36:00,
2013-05-08 02:39:00,56.1,48.0,29.62,WSW,258,0.0,0.0,74,0.00,,---,0.00,VWS V13.01,2013-05-08 09:39:00,
2013-05-08 02:40:00,55.9,47.8,29.62,WSW,258,0.0,0.0,74,0.00,,---,0.00,VWS V13.01,2013-05-08 09:40:00,
2013-05-08 02:41:00,55.9,47.8,29.62,WSW,258,0.0,0.0,74,0.00,,---,0.00,VWS V13.01,2013-05-08 09:41:00,
2013-05-08 02:44:00,56.1,48.0,29.62,WSW,258,0.0,0.0,74,0.00,,---,0.00,VWS V13.01,2013-05-08 09:44:00,
2013-05-08 02:45:00,56.1,48.0,29.62,WSW,258,0.0,0.0,74,0.00,,---,0.00,VWS V13.01,2013-05-08 09:45:00,
2013-05-08 02:46:00,56.1,48.0,29.62,WSW,258,0.0,0.0,74,0.00,,---,0.00,VWS V13.01,2013-05-08 09:46:00,
2013-05-08 02:47:00,56.1,48.0,29.62,WSW,258,0.0,0.0,74,0.00,,---,0.00,VWS V13.01,2013-05-08 09:47:00,
2013-05-08 02:49:00,55.9,47.8,29.62,WSW,258,0.0,0.0,74,0.00,,---,0.00,VWS V13.01,2013-05-08 09:49:00,
2013-05-08 02:51:00,55.9,47.8,29.62,WSW,258,0.0,0.0,74,0.00,,---,0.00,VWS V13.01,2013-05-08 09:51:00,
2013-05-08 02:52:00,55.9,47.8,29.62,WSW,258,0.0,0.0,74,0.00,,---,0.00,VWS V13.01,2013-05-08 09:52:00,
2013-05-08 02:54:00,55.9,47.8,29.62,WSW,258,0.0,0.0,74,0.00,,---,0.00,VWS V13.01,2013-05-08 09:54:00,
2013-05-08 02:56:00,55.9,47.8,29.62,WSW,258,0.0,0.0,74,0.00,,---,0.00,VWS V13.01,2013-05-08 09:56:00,
2013-05-08 02:58:00,55.9,47.8,29.62,WSW,258,0.0,0.0,74,0.00,,---,0.00,VWS V13.01,2013-05-08 09:58:00,
2013-05-08 02:59:00,55.8,47.6,29.62,WSW,258,0.0,0.0,74,0.00,,---,0.00,VWS V13.01,2013-05-08 09:59:00,
2013-05-08 03:01:00,55.8,47.6,29.62,WSW,258,0.0,0.0,74,0.00,,---,0.00,VWS V13.01,2013-05-08 10:01:00,
2013-05-08 03:03:00,55.6,47.4,29.62,WSW,258,0.0,0.0,74,0.00,,---,0.00,VWS V13.01,2013-05-08 10:03:00,
2013-05-08 03:04:00,55.6,47.4,29.62,West,276,0.0,0.0,74,0.00,,---,0.00,VWS V13.01,2013-05-08 10:04:00,
2013-05-08 03:06:00,55.6,47.4,29.62,West,276,0.0,0.0,74,0.00,,---,0.00,VWS V13.01,2013-05-08 10:06:00,
2013-05-08 03:07:00,55.6,47.4,29.62,West,276,0.0,0.0,74,0.00,,---,0.00,VWS V13.01,2013-05-08 10:07:00,
2013-05-08 03:08:00,55.4,47.3,29.62,WSW,245,0.0,0.0,74,0.00,,---,0.00,VWS V13.01,2013-05-08 10:08:00,
2013-05-08 03:09:00,55.4,47.3,29.62,WSW,245,0.0,0.0,74,0.00,,---,0.00,VWS V13.01,2013-05-08 10:09:00,
2013-05-08 03:11:00,55.4,47.3,29.62,WSW,245,0.0,0.0,74,0.00,,---,0.00,VWS V13.01,2013-05-08 10:11:00,
2013-05-08 03:12:00,55.4,47.3,29.62,WSW,245,0.0,0.0,74,0.00,,---,0.00,VWS V13.01,2013-05-08 10:12:00,
2013-05-08 03:13:00,55.4,47.3,29.62,SSW,211,2.7,2.7,74,0.00,,---,0.00,VWS V13.01,2013-05-08 10:13:00,
2013-05-08 03:15:00,55.2,47.5,29.62,WSW,244,0.0,2.7,75,0.00,,---,0.00,VWS V13.01,2013-05-08 10:15:00,
2013-05-08 03:16:00,55.2,47.5,29.62,WSW,244,0.0,0.0,75,0.00,,---,0.00,VWS V13.01,2013-05-08 10:16:00,
2013-05-08 03:17:00,55.0,47.3,29.62,WSW,244,0.0,0.0,75,0.00,,---,0.00,VWS V13.01,2013-05-08 10:17:00,
2013-05-08 03:18:00,55.0,47.3,29.62,West,268,2.2,2.2,75,0.00,,---,0.00,VWS V13.01,2013-05-08 10:18:00,
2013-05-08 03:20:00,55.0,47.3,29.62,WNW,288,0.0,2.2,75,0.00,,---,0.00,VWS V13.01,2013-05-08 10:20:00,
2013-05-08 03:21:00,54.9,47.5,29.62,WNW,288,0.0,0.0,76,0.00,,---,0.00,VWS V13.01,2013-05-08 10:21:00,
2013-05-08 03:22:00,54.9,47.5,29.62,WNW,288,0.0,0.0,76,0.00,,---,0.00,VWS V13.01,2013-05-08 10:22:00,
2013-05-08 03:23:00,54.9,47.5,29.62,WNW,288,0.0,0.0,76,0.00,,---,0.00,VWS V13.01,2013-05-08 10:23:00,
2013-05-08 03:25:00,54.9,47.5,29.62,WNW,288,0.0,0.0,76,0.00,,---,0.00,VWS V13.01,2013-05-08 10:25:00,
2013-05-08 03:26:00,55.0,47.6,29.62,WNW,295,2.7,2.7,76,0.00,,---,0.00,VWS V13.01,2013-05-08 10:26:00,
2013-05-08 03:27:00,54.9,47.5,29.62,WNW,295,2.7,2.7,76,0.00,,---,0.00,VWS V13.01,2013-05-08 10:27:00,
2013-05-08 03:28:00,54.9,47.5,29.62,WNW,295,2.7,2.7,76,0.00,,---,0.00,VWS V13.01,2013-05-08 10:28:00,
2013-05-08 03:30:00,54.9,47.5,29.62,SW,232,0.0,2.7,76,0.00,,---,0.00,VWS V13.01,2013-05-08 10:30:00,
2013-05-08 03:31:00,54.9,47.5,29.62,SW,232,0.0,0.0,76,0.00,,---,0.00,VWS V13.01,2013-05-08 10:31:00,
2013-05-08 03:32:00,54.9,47.5,29.62,WNW,292,2.7,2.7,76,0.00,,---,0.00,VWS V13.01,2013-05-08 10:32:00,
2013-05-08 03:33:00,54.9,47.5,29.62,WSW,256,2.2,2.2,76,0.00,,---,0.00,VWS V13.01,2013-05-08 10:33:00,
2013-05-08 03:35:00,54.7,47.6,29.62,WSW,255,0.0,0.0,77,0.00,,---,0.00,VWS V13.01,2013-05-08 10:35:00,
2013-05-08 03:36:00,54.7,47.6,29.62,WSW,255,0.0,0.0,77,0.00,,---,0.00,VWS V13.01,2013-05-08 10:36:00,
2013-05-08 03:37:00,54.7,47.6,29.62,WSW,255,0.0,0.0,77,0.00,,---,0.00,VWS V13.01,2013-05-08 10:37:00,
2013-05-08 03:38:00,54.7,47.6,29.62,WSW,255,0.0,0.0,77,0.00,,---,0.00,VWS V13.01,2013-05-08 10:38:00,
2013-05-08 03:40:00,54.7,47.6,29.62,SSW,193,0.0,0.0,77,0.00,,---,0.00,VWS V13.01,2013-05-08 10:40:00,
2013-05-08 03:41:00,54.7,47.6,29.62,SSW,193,0.0,0.0,77,0.00,,---,0.00,VWS V13.01,2013-05-08 10:41:00,
2013-05-08 03:42:00,54.7,47.6,29.62,SSW,193,0.0,0.0,77,0.00,,---,0.00,VWS V13.01,2013-05-08 10:42:00,
2013-05-08 03:43:00,54.7,47.6,29.62,SSW,193,0.0,0.0,77,0.00,,---,0.00,VWS V13.01,2013-05-08 10:43:00,
2013-05-08 03:45:00,54.5,47.8,29.62,South,173,0.0,0.0,78,0.00,,---,0.00,VWS V13.01,2013-05-08 10:45:00,
2013-05-08 03:46:00,54.5,47.8,29.62,West,262,2.7,2.7,78,0.00,,---,0.00,VWS V13.01,2013-05-08 10:46:00,
2013-05-08 03:47:00,54.5,47.8,29.62,West,262,2.7,2.7,78,0.00,,---,0.00,VWS V13.01,2013-05-08 10:47:00,
2013-05-08 03:48:00,54.5,47.8,29.62,West,271,3.6,3.6,78,0.00,,---,0.00,VWS V13.01,2013-05-08 10:48:00,
2013-05-08 03:50:00,54.5,47.8,29.62,West,271,3.6,3.6,78,0.00,,---,0.00,VWS V13.01,2013-05-08 10:50:00,
2013-05-08 03:51:00,54.5,47.8,29.62,West,271,3.6,3.6,78,0.00,,---,0.00,VWS V13.01,2013-05-08 10:51:00,
2013-05-08 03:52:00,54.5,47.8,29.62,West,271,3.6,3.6,78,0.00,,---,0.00,VWS V13.01,2013-05-08 10:52:00,
2013-05-08 03:53:00,54.1,47.8,29.62,WSW,240,0.0,0.0,79,0.00,,---,0.00,VWS V13.01,2013-05-08 10:53:00,
2013-05-08 03:55:00,54.1,47.8,29.62,WSW,240,0.0,0.0,79,0.00,,---,0.00,VWS V13.01,2013-05-08 10:55:00,
2013-05-08 03:56:00,54.3,48.0,29.62,West,273,2.2,2.2,79,0.00,,---,0.00,VWS V13.01,2013-05-08 10:56:00,
2013-05-08 03:57:00,54.3,48.0,29.62,West,273,2.2,2.2,79,0.00,,---,0.00,VWS V13.01,2013-05-08 10:57:00,
2013-05-08 03:58:00,54.3,48.0,29.62,West,273,2.2,2.2,79,0.00,,---,0.00,VWS V13.01,2013-05-08 10:58:00,
2013-05-08 03:59:00,54.3,48.0,29.62,West,273,2.2,2.2,79,0.00,,---,0.00,VWS V13.01,2013-05-08 10:59:00,
2013-05-08 04:00:00,54.3,48.0,29.62,WSW,238,0.0,2.2,79,0.00,,---,0.00,VWS V13.01,2013-05-08 11:00:00,
2013-05-08 04:01:00,54.3,48.0,29.62,WSW,238,2.2,2.2,79,0.00,,---,0.00,VWS V13.01,2013-05-08 11:01:00,
2013-05-08 04:02:00,54.5,48.1,29.62,WSW,238,2.2,2.2,79,0.00,,---,0.00,VWS V13.01,2013-05-08 11:02:00,
2013-05-08 04:03:00,54.5,48.1,29.62,West,273,0.0,2.2,79,0.00,,---,0.00,VWS V13.01,2013-05-08 11:03:00,
2013-05-08 04:04:00,54.5,48.1,29.62,West,273,0.0,2.2,79,0.00,,---,0.00,VWS V13.01,2013-05-08 11:04:00,
2013-05-08 04:05:00,54.5,47.8,29.62,West,273,0.0,0.0,78,0.00,,---,0.00,VWS V13.01,2013-05-08 11:05:00,
2013-05-08 04:06:00,54.5,47.8,29.62,West,273,0.0,0.0,78,0.00,,---,0.00,VWS V13.01,2013-05-08 11:06:00,
2013-05-08 04:07:00,54.3,47.6,29.62,West,273,0.0,0.0,78,0.00,,---,0.00,VWS V13.01,2013-05-08 11:07:00,
2013-05-08 04:08:00,54.3,47.6,29.62,West,273,0.0,0.0,78,0.00,,---,0.00,VWS V13.01,2013-05-08 11:08:00,
2013-05-08 04:09:00,54.3,47.6,29.62,West,273,0.0,0.0,78,0.00,,---,0.00,VWS V13.01,2013-05-08 11:09:00,
2013-05-08 04:10:00,54.3,47.6,29.62,West,273,0.0,0.0,78,0.00,,---,0.00,VWS V13.01,2013-05-08 11:10:00,
2013-05-08 04:11:00,54.1,47.8,29.62,West,273,0.0,0.0,79,0.00,,---,0.00,VWS V13.01,2013-05-08 11:11:00,
2013-05-08 04:12:00,54.1,47.8,29.62,West,273,0.0,0.0,79,0.00,,---,0.00,VWS V13.01,2013-05-08 11:12:00,
2013-05-08 04:14:00,54.1,47.8,29.62,West,273,0.0,0.0,79,0.00,,---,0.00,VWS V13.01,2013-05-08 11:14:00,
2013-05-08 04:15:00,54.1,47.8,29.62,WSW,257,0.0,0.0,79,0.00,,---,0.00,VWS V13.01,2013-05-08 11:15:00,
2013-05-08 04:17:00,54.1,47.8,29.62,WSW,257,0.0,0.0,79,0.00,,---,0.00,VWS V13.01,2013-05-08 11:17:00,
2013-05-08 04:19:00,54.1,47.8,29.62,West,260,0.0,0.0,79,0.00,,---,0.00,VWS V13.01,2013-05-08 11:19:00,
2013-05-08 04:20:00,54.3,48.0,29.62,West,260,0.0,0.0,79,0.00,,---,0.00,VWS V13.01,2013-05-08 11:20:00,
2013-05-08 04:22:00,54.3,48.0,29.62,West,260,2.2,2.2,79,0.00,,---,0.00,VWS V13.01,2013-05-08 11:22:00,
2013-05-08 04:24:00,54.0,47.9,29.62,West,260,0.0,0.0,80,0.00,,---,0.00,VWS V13.01,2013-05-08 11:24:00,
2013-05-08 04:25:00,54.0,47.9,29.62,West,260,0.0,0.0,80,0.00,,---,0.00,VWS V13.01,2013-05-08 11:25:00,
2013-05-08 04:27:00,54.0,47.9,29.62,West,260,0.0,0.0,80,0.00,,---,0.00,VWS V13.01,2013-05-08 11:27:00,
2013-05-08 04:29:00,54.0,47.9,29.62,West,260,0.0,0.0,80,0.00,,---,0.00,VWS V13.01,2013-05-08 11:29:00,
2013-05-08 04:30:00,54.3,48.3,29.62,West,260,0.0,0.0,80,0.00,,---,0.00,VWS V13.01,2013-05-08 11:30:00,
2013-05-08 04:32:00,54.3,48.3,29.62,WSW,253,3.1,3.1,80,0.00,,---,0.00,VWS V13.01,2013-05-08 11:32:00,
2013-05-08 04:34:00,54.1,48.1,29.62,West,267,0.0,3.1,80,0.00,,---,0.00,VWS V13.01,2013-05-08 11:34:00,
2013-05-08 04:36:00,54.1,48.1,29.62,West,267,0.0,0.0,80,0.00,,---,0.00,VWS V13.01,2013-05-08 11:36:00,
2013-05-08 04:37:00,54.1,48.1,29.62,West,267,0.0,0.0,80,0.00,,---,0.00,VWS V13.01,2013-05-08 11:37:00,
2013-05-08 04:38:00,54.1,48.1,29.62,West,267,0.0,0.0,80,0.00,,---,0.00,VWS V13.01,2013-05-08 11:38:00,
2013-05-08 04:39:00,54.3,48.3,29.62,West,267,0.0,0.0,80,0.00,,---,0.00,VWS V13.01,2013-05-08 11:39:00,
2013-05-08 04:41:00,54.3,48.3,29.62,WNW,285,2.7,2.7,80,0.00,,---,0.00,VWS V13.01,2013-05-08 11:41:00,
2013-05-08 04:43:00,54.3,48.3,29.62,SW,230,3.1,3.1,80,0.00,,---,0.00,VWS V13.01,2013-05-08 11:43:00,
2013-05-08 04:44:00,54.3,48.3,29.62,SW,230,3.1,3.1,80,0.00,,---,0.00,VWS V13.01,2013-05-08 11:44:00,
2013-05-08 04:45:00,54.3,48.3,29.62,SW,230,3.1,3.1,80,0.00,,---,0.00,VWS V13.01,2013-05-08 11:45:00,
2013-05-08 04:46:00,54.3,48.3,29.62,West,271,0.0,0.0,80,0.00,,---,0.00,VWS V13.01,2013-05-08 11:46:00,
2013-05-08 04:48:00,54.3,48.3,29.62,West,271,0.0,0.0,80,0.00,,---,0.00,VWS V13.01,2013-05-08 11:48:00,
2013-05-08 04:49:00,54.3,48.3,29.62,West,271,2.2,2.2,80,0.00,,---,0.00,VWS V13.01,2013-05-08 11:49:00,
2013-05-08 04:50:00,54.3,48.3,29.62,West,271,0.0,2.2,80,0.00,,---,0.00,VWS V13.01,2013-05-08 11:50:00,
2013-05-08 04:51:00,54.5,48.5,29.62,West,271,0.0,0.0,80,0.00,,---,0.00,VWS V13.01,2013-05-08 11:51:00,
2013-05-08 04:53:00,54.5,48.5,29.62,West,271,0.0,0.0,80,0.00,,---,0.00,VWS V13.01,2013-05-08 11:53:00,
2013-05-08 04:55:00,54.5,48.5,29.62,West,271,0.0,0.0,80,0.00,,---,0.00,VWS V13.01,2013-05-08 11:55:00,
2013-05-08 04:56:00,54.5,48.5,29.62,West,267,4.9,4.9,80,0.00,,---,0.00,VWS V13.01,2013-05-08 11:56:00,
2013-05-08 04:58:00,54.5,48.5,29.62,West,267,4.9,4.9,80,0.00,,---,0.00,VWS V13.01,2013-05-08 11:58:00,
2013-05-08 05:00:00,54.3,48.6,29.62,WSW,245,4.0,4.0,81,0.00,,---,0.00,VWS V13.01,2013-05-08 12:00:00,
2013-05-08 05:01:00,54.1,48.5,29.62,South,188,3.1,3.1,81,0.00,,---,0.00,VWS V13.01,2013-05-08 12:01:00,
2013-05-08 05:03:00,54.1,48.5,29.62,South,188,0.0,3.1,81,0.00,,---,0.00,VWS V13.01,2013-05-08 12:03:00,
2013-05-08 05:05:00,54.1,48.5,29.62,South,188,0.0,0.0,81,0.00,,---,0.00,VWS V13.01,2013-05-08 12:05:00,
2013-05-08 05:06:00,54.3,48.6,29.65,South,188,0.0,0.0,81,0.00,,---,0.00,VWS V13.01,2013-05-08 12:06:00,
2013-05-08 05:08:00,54.3,48.6,29.65,SW,219,0.0,0.0,81,0.00,,---,0.00,VWS V13.01,2013-05-08 12:08:00,
2013-05-08 05:10:00,54.5,48.8,29.65,SW,228,0.0,0.0,81,0.00,,---,0.00,VWS V13.01,2013-05-08 12:10:00,
2013-05-08 05:11:00,54.3,48.6,29.65,SW,228,0.0,0.0,81,0.00,,---,0.00,VWS V13.01,2013-05-08 12:11:00,
2013-05-08 05:13:00,54.3,48.6,29.65,SW,228,0.0,0.0,81,0.00,,---,0.00,VWS V13.01,2013-05-08 12:13:00,
2013-05-08 05:14:00,54.3,48.6,29.65,SW,228,0.0,0.0,81,0.00,,---,0.00,VWS V13.01,2013-05-08 12:14:00,
2013-05-08 05:15:00,54.5,48.8,29.65,SW,228,0.0,0.0,81,0.00,,---,0.00,VWS V13.01,2013-05-08 12:15:00,
2013-05-08 05:16:00,54.5,48.8,29.65,SW,221,0.0,0.0,81,0.00,,---,0.00,VWS V13.01,2013-05-08 12:16:00,
2013-05-08 05:18:00,54.5,48.8,29.65,SW,221,0.0,0.0,81,0.00,,---,0.00,VWS V13.01,2013-05-08 12:18:00,
2013-05-08 05:19:00,54.5,48.5,29.65,SW,221,0.0,0.0,80,0.00,,---,0.00,VWS V13.01,2013-05-08 12:19:00,
2013-05-08 05:20:00,54.5,48.5,29.65,SW,221,0.0,0.0,80,0.00,,---,0.00,VWS V13.01,2013-05-08 12:20:00,
2013-05-08 05:21:00,54.5,48.5,29.65,SW,221,0.0,0.0,80,0.00,,---,0.00,VWS V13.01,2013-05-08 12:21:00,
2013-05-08 05:23:00,54.5,48.5,29.65,SW,221,0.0,0.0,80,0.00,,---,0.00,VWS V13.01,2013-05-08 12:23:00,
2013-05-08 05:24:00,54.7,48.6,29.65,SE,126,0.0,0.0,80,0.00,,---,0.00,VWS V13.01,2013-05-08 12:24:00,
2013-05-08 05:26:00,54.7,48.6,29.65,SE,126,0.0,0.0,80,0.00,,---,0.00,VWS V13.01,2013-05-08 12:26:00,
2013-05-08 05:28:00,54.5,48.8,29.65,West,273,4.0,4.0,81,0.00,,---,0.00,VWS V13.01,2013-05-08 12:28:00,
2013-05-08 05:29:00,54.5,48.8,29.65,West,273,4.0,4.0,81,0.00,,---,0.00,VWS V13.01,2013-05-08 12:29:00,
2013-05-08 05:31:00,54.5,48.8,29.65,WNW,300,2.2,2.7,81,0.00,,---,0.00,VWS V13.01,2013-05-08 12:31:00,
2013-05-08 05:33:00,54.1,48.5,29.65,West,272,0.0,2.2,81,0.00,,---,0.00,VWS V13.01,2013-05-08 12:33:00,
2013-05-08 05:34:00,54.1,48.5,29.65,West,272,0.0,0.0,81,0.00,,---,0.00,VWS V13.01,2013-05-08 12:34:00,
2013-05-08 05:36:00,54.3,48.6,29.65,West,272,0.0,0.0,81,0.00,,---,0.00,VWS V13.01,2013-05-08 12:36:00,
2013-05-08 05:37:00,54.3,48.6,29.65,West,272,0.0,0.0,81,0.00,,---,0.00,VWS V13.01,2013-05-08 12:37:00,
2013-05-08 05:38:00,54.3,48.6,29.65,SW,235,0.0,0.0,81,0.00,,---,0.00,VWS V13.01,2013-05-08 12:38:00,
2013-05-08 05:39:00,54.3,48.6,29.65,SW,235,0.0,0.0,81,0.00,,---,0.00,VWS V13.01,2013-05-08 12:39:00,
2013-05-08 05:41:00,54.5,48.8,29.65,SW,235,0.0,0.0,81,0.00,,---,0.00,VWS V13.01,2013-05-08 12:41:00,
2013-05-08 05:42:00,54.5,48.8,29.65,SW,235,0.0,0.0,81,0.00,,---,0.00,VWS V13.01,2013-05-08 12:42:00,
2013-05-08 05:44:00,54.5,48.8,29.65,SW,235,0.0,0.0,81,0.00,,---,0.00,VWS V13.01,2013-05-08 12:44:00,
2013-05-08 05:46:00,54.7,48.6,29.65,WNW,292,4.0,4.0,80,0.00,,---,0.00,VWS V13.01,2013-05-08 12:46:00,
2013-05-08 05:47:00,54.7,48.6,29.65,WNW,292,4.0,4.0,80,0.00,,---,0.00,VWS V13.01,2013-05-08 12:47:00,
2013-05-08 05:49:00,54.7,48.6,29.65,WNW,288,2.7,2.7,80,0.00,,---,0.00,VWS V13.01,2013-05-08 12:49:00,
2013-05-08 05:52:00,54.5,48.8,29.65,West,266,0.0,2.7,81,0.00,,---,0.00,VWS V13.01,2013-05-08 12:52:00,
2013-05-08 05:54:00,54.5,48.8,29.65,West,266,0.0,0.0,81,0.00,,---,0.00,VWS V13.01,2013-05-08 12:54:00,
2013-05-08 05:57:00,54.5,48.8,29.65,NW,306,2.7,2.7,81,0.00,,---,0.00,VWS V13.01,2013-05-08 12:57:00,
2013-05-08 05:59:00,54.5,48.8,29.65,NW,306,2.7,2.7,81,0.00,,---,0.00,VWS V13.01,2013-05-08 12:59:00,
2013-05-08 06:02:00,54.3,48.6,29.65,WSW,247,2.2,2.2,81,0.00,,---,0.00,VWS V13.01,2013-05-08 13:02:00,
2013-05-08 06:04:00,54.3,48.6,29.65,West,272,2.2,2.2,81,0.00,,---,0.00,VWS V13.01,2013-05-08 13:04:00,
2013-05-08 06:05:00,54.3,48.6,29.65,West,272,2.2,2.2,81,0.00,,---,0.00,VWS V13.01,2013-05-08 13:05:00,
2013-05-08 06:07:00,54.3,48.6,29.65,West,273,0.0,0.0,81,0.00,,---,0.00,VWS V13.01,2013-05-08 13:07:00,
2013-05-08 06:09:00,54.5,48.8,29.65,West,267,0.0,0.0,81,0.00,,---,0.00,VWS V13.01,2013-05-08 13:09:00,
2013-05-08 06:10:00,54.5,48.8,29.65,West,274,4.0,4.0,81,0.00,,---,0.00,VWS V13.01,2013-05-08 13:10:00,
2013-05-08 06:12:00,54.3,48.6,29.65,West,274,4.0,4.0,81,0.00,,---,0.00,VWS V13.01,2013-05-08 13:12:00,
2013-05-08 06:14:00,54.1,48.8,29.65,SSW,212,0.0,0.0,82,0.00,,---,0.00,VWS V13.01,2013-05-08 13:14:00,
2013-05-08 06:15:00,54.1,48.8,29.65,SSW,212,0.0,0.0,82,0.00,,---,0.00,VWS V13.01,2013-05-08 13:15:00,
2013-05-08 06:17:00,54.3,48.6,29.65,SSW,212,0.0,0.0,81,0.00,,---,0.00,VWS V13.01,2013-05-08 13:17:00,
2013-05-08 06:18:00,54.3,48.6,29.65,WNW,290,2.7,2.7,81,0.00,,---,0.00,VWS V13.01,2013-05-08 13:18:00,
2013-05-08 06:19:00,54.3,49.0,29.65,West,279,2.2,2.2,82,0.00,,---,0.00,VWS V13.01,2013-05-08 13:19:00,
2013-05-08 06:21:00,54.3,49.0,29.65,West,268,4.9,4.9,82,0.00,,---,0.00,VWS V13.01,2013-05-08 13:21:00,
2013-05-08 06:22:00,54.3,49.0,29.65,West,268,4.9,4.9,82,0.00,,---,0.00,VWS V13.01,2013-05-08 13:22:00,
2013-05-08 06:24:00,54.3,49.0,29.65,West,274,0.0,4.9,82,0.00,,---,0.00,VWS V13.01,2013-05-08 13:24:00,
2013-05-08 06:26:00,54.3,49.0,29.65,West,274,0.0,0.0,82,0.00,,---,0.00,VWS V13.01,2013-05-08 13:26:00,
2013-05-08 06:27:00,54.3,49.0,29.65,West,274,2.7,2.7,82,0.00,,---,0.00,VWS V13.01,2013-05-08 13:27:00,
2013-05-08 06:29:00,54.3,49.0,29.65,West,274,2.2,2.2,82,0.00,,---,0.00,VWS V13.01,2013-05-08 13:29:00,
2013-05-08 06:31:00,54.5,48.8,29.65,West,274,2.2,2.2,81,0.00,,---,0.00,VWS V13.01,2013-05-08 13:31:00,
2013-05-08 06:32:00,54.5,48.8,29.65,West,274,0.0,0.0,81,0.00,,---,0.00,VWS V13.01,2013-05-08 13:32:00,
2013-05-08 06:34:00,54.5,48.8,29.65,West,275,0.0,0.0,81,0.00,,---,0.00,VWS V13.01,2013-05-08 13:34:00,
2013-05-08 06:35:00,54.5,48.8,29.65,West,275,0.0,0.0,81,0.00,,---,0.00,VWS V13.01,2013-05-08 13:35:00,
2013-05-08 06:36:00,54.5,48.8,29.65,West,275,0.0,0.0,81,0.00,,---,0.00,VWS V13.01,2013-05-08 13:36:00,
2013-05-08 06:37:00,54.5,48.8,29.65,West,275,0.0,0.0,81,0.00,,---,0.00,VWS V13.01,2013-05-08 13:37:00,
2013-05-08 06:38:00,54.5,48.8,29.65,West,275,0.0,0.0,81,0.00,,---,0.00,VWS V13.01,2013-05-08 13:38:00,
2013-05-08 06:39:00,54.5,48.8,29.65,West,275,0.0,0.0,81,0.00,,---,0.00,VWS V13.01,2013-05-08 13:39:00,
2013-05-08 06:40:00,54.7,49.0,29.65,West,275,0.0,0.0,81,0.00,,---,0.00,VWS V13.01,2013-05-08 13:40:00,
2013-05-08 06:41:00,54.7,49.0,29.65,West,275,0.0,0.0,81,0.00,,---,0.00,VWS V13.01,2013-05-08 13:41:00,
2013-05-08 06:42:00,54.7,49.0,29.65,West,275,0.0,0.0,81,0.00,,---,0.00,VWS V13.01,2013-05-08 13:42:00,
2013-05-08 06:43:00,54.7,49.0,29.65,West,275,0.0,0.0,81,0.00,,---,0.00,VWS V13.01,2013-05-08 13:43:00,
2013-05-08 06:44:00,54.7,49.0,29.65,West,275,0.0,0.0,81,0.00,,---,0.00,VWS V13.01,2013-05-08 13:44:00,
2013-05-08 06:45:00,54.7,49.0,29.65,West,275,0.0,0.0,81,0.00,,---,0.00,VWS V13.01,2013-05-08 13:45:00,
2013-05-08 06:46:00,54.7,49.0,29.65,West,275,0.0,0.0,81,0.00,,---,0.00,VWS V13.01,2013-05-08 13:46:00,
2013-05-08 06:47:00,54.7,49.0,29.65,WSW,254,0.0,0.0,81,0.00,,---,0.00,VWS V13.01,2013-05-08 13:47:00,
2013-05-08 06:48:00,54.7,49.0,29.65,WSW,254,0.0,0.0,81,0.00,,---,0.00,VWS V13.01,2013-05-08 13:48:00,
2013-05-08 06:49:00,54.7,49.0,29.65,WSW,254,0.0,0.0,81,0.00,,---,0.00,VWS V13.01,2013-05-08 13:49:00,
2013-05-08 06:51:00,54.9,49.2,29.65,West,268,2.2,2.2,81,0.00,,---,0.00,VWS V13.01,2013-05-08 13:51:00,
2013-05-08 06:53:00,54.9,49.2,29.65,West,268,3.1,3.1,81,0.00,,---,0.00,VWS V13.01,2013-05-08 13:53:00,
2013-05-08 06:54:00,54.9,49.2,29.65,West,268,2.2,3.1,81,0.00,,---,0.00,VWS V13.01,2013-05-08 13:54:00,
2013-05-08 06:56:00,54.5,49.1,29.65,West,268,0.0,0.0,82,0.00,,---,0.00,VWS V13.01,2013-05-08 13:56:00,
2013-05-08 06:58:00,54.5,49.1,29.65,West,268,0.0,0.0,82,0.00,,---,0.00,VWS V13.01,2013-05-08 13:58:00,
2013-05-08 06:59:00,54.5,49.1,29.65,West,268,0.0,0.0,82,0.00,,---,0.00,VWS V13.01,2013-05-08 13:59:00,
2013-05-08 07:01:00,54.5,49.1,29.65,West,268,0.0,0.0,82,0.00,,---,0.00,VWS V13.01,2013-05-08 14:01:00,
2013-05-08 07:03:00,54.5,49.1,29.65,West,268,0.0,0.0,82,0.00,,---,0.00,VWS V13.01,2013-05-08 14:03:00,
2013-05-08 07:04:00,54.9,49.5,29.65,West,268,0.0,0.0,82,0.00,,---,0.00,VWS V13.01,2013-05-08 14:04:00,
2013-05-08 07:06:00,54.7,49.3,29.65,West,268,0.0,0.0,82,0.00,,---,0.00,VWS V13.01,2013-05-08 14:06:00,
2013-05-08 07:08:00,54.7,49.3,29.65,West,268,0.0,0.0,82,0.00,,---,0.00,VWS V13.01,2013-05-08 14:08:00,
2013-05-08 07:09:00,54.7,49.3,29.65,West,268,0.0,0.0,82,0.00,,---,0.00,VWS V13.01,2013-05-08 14:09:00,
2013-05-08 07:11:00,54.9,49.5,29.65,West,268,2.2,2.7,82,0.00,,---,0.00,VWS V13.01,2013-05-08 14:11:00,
2013-05-08 07:12:00,54.9,49.5,29.65,West,268,2.2,2.7,82,0.00,,---,0.00,VWS V13.01,2013-05-08 14:12:00,
2013-05-08 07:13:00,54.7,49.3,29.65,West,268,0.0,0.0,82,0.00,,---,0.00,VWS V13.01,2013-05-08 14:13:00,
2013-05-08 07:14:00,54.7,49.3,29.65,West,268,0.0,0.0,82,0.00,,---,0.00,VWS V13.01,2013-05-08 14:14:00,
2013-05-08 07:17:00,54.9,49.5,29.65,WSW,247,3.1,3.1,82,0.00,,---,0.00,VWS V13.01,2013-05-08 14:17:00,
2013-05-08 07:18:00,54.9,49.5,29.65,WSW,247,3.1,3.1,82,0.00,,---,0.00,VWS V13.01,2013-05-08 14:18:00,
2013-05-08 07:19:00,54.9,49.5,29.65,WSW,247,3.1,3.1,82,0.00,,---,0.00,VWS V13.01,2013-05-08 14:19:00,
2013-05-08 07:20:00,54.9,49.5,29.65,WSW,247,3.1,3.1,82,0.00,,---,0.00,VWS V13.01,2013-05-08 14:20:00,
2013-05-08 07:22:00,54.9,49.5,29.65,SSW,212,0.0,0.0,82,0.00,,---,0.00,VWS V13.01,2013-05-08 14:22:00,
2013-05-08 07:24:00,55.0,49.7,29.65,SSW,212,0.0,0.0,82,0.00,,---,0.00,VWS V13.01,2013-05-08 14:24:00,
2013-05-08 07:25:00,55.0,49.7,29.65,SSW,213,0.0,0.0,82,0.00,,---,0.00,VWS V13.01,2013-05-08 14:25:00,
2013-05-08 07:27:00,55.0,49.7,29.65,SSW,197,0.0,0.0,82,0.00,,---,0.00,VWS V13.01,2013-05-08 14:27:00,
2013-05-08 07:29:00,55.0,49.7,29.65,SSW,197,0.0,0.0,82,0.00,,---,0.00,VWS V13.01,2013-05-08 14:29:00,
2013-05-08 07:30:00,55.0,49.7,29.65,West,265,0.0,0.0,82,0.00,,---,0.00,VWS V13.01,2013-05-08 14:30:00,
2013-05-08 07:32:00,55.0,49.7,29.65,West,260,2.2,2.2,82,0.00,,---,0.00,VWS V13.01,2013-05-08 14:32:00,
2013-05-08 07:34:00,55.0,49.7,29.65,West,260,0.0,0.0,82,0.00,,---,0.00,VWS V13.01,2013-05-08 14:34:00,
2013-05-08 07:35:00,55.0,49.7,29.65,West,260,0.0,0.0,82,0.00,,---,0.00,VWS V13.01,2013-05-08 14:35:00,
2013-05-08 07:37:00,55.0,49.7,29.65,West,260,0.0,0.0,82,0.00,,---,0.00,VWS V13.01,2013-05-08 14:37:00,
2013-05-08 07:39:00,55.0,49.7,29.65,WSW,257,2.7,2.7,82,0.00,,---,0.00,VWS V13.01,2013-05-08 14:39:00,
2013-05-08 07:40:00,55.0,49.7,29.65,WSW,244,3.6,3.6,82,0.00,,---,0.00,VWS V13.01,2013-05-08 14:40:00,
2013-05-08 07:42:00,54.7,49.6,29.65,WSW,244,3.6,3.6,83,0.00,,---,0.00,VWS V13.01,2013-05-08 14:42:00,
2013-05-08 07:44:00,54.7,49.6,29.65,West,274,2.7,2.7,83,0.00,,---,0.00,VWS V13.01,2013-05-08 14:44:00,
2013-05-08 07:45:00,54.7,49.6,29.65,West,274,0.0,2.7,83,0.00,,---,0.00,VWS V13.01,2013-05-08 14:45:00,
2013-05-08 07:47:00,54.7,49.6,29.65,West,274,0.0,0.0,83,0.00,,---,0.00,VWS V13.01,2013-05-08 14:47:00,
2013-05-08 07:49:00,54.7,49.6,29.65,West,274,2.7,2.7,83,0.00,,---,0.00,VWS V13.01,2013-05-08 14:49:00,
2013-05-08 07:50:00,54.7,49.6,29.65,West,274,2.7,2.7,83,0.00,,---,0.00,VWS V13.01,2013-05-08 14:50:00,
2013-05-08 07:52:00,54.7,49.6,29.65,West,280,3.6,3.6,83,0.00,,---,0.00,VWS V13.01,2013-05-08 14:52:00,
2013-05-08 07:54:00,54.7,49.6,29.65,WNW,286,3.1,3.1,83,0.00,,---,0.00,VWS V13.01,2013-05-08 14:54:00,
2013-05-08 07:55:00,54.7,49.6,29.65,WNW,286,3.1,3.1,83,0.00,,---,0.00,VWS V13.01,2013-05-08 14:55:00,
2013-05-08 07:57:00,54.7,49.6,29.65,West,279,2.7,2.7,83,0.00,,---,0.00,VWS V13.01,2013-05-08 14:57:00,
2013-05-08 07:59:00,54.5,49.8,29.65,West,279,0.0,0.0,84,0.00,,---,0.00,VWS V13.01,2013-05-08 14:59:00,
2013-05-08 08:00:00,54.5,49.8,29.65,West,279,0.0,0.0,84,0.00,,---,0.00,VWS V13.01,2013-05-08 15:00:00,
2013-05-08 08:01:00,54.5,49.8,29.65,West,280,0.0,0.0,84,0.00,,---,0.00,VWS V13.01,2013-05-08 15:01:00,
2013-05-08 08:02:00,54.7,50.0,29.65,West,280,0.0,0.0,84,0.00,,---,0.00,VWS V13.01,2013-05-08 15:02:00,
2013-05-08 08:03:00,54.7,50.0,29.65,West,280,0.0,0.0,84,0.00,,---,0.00,VWS V13.01,2013-05-08 15:03:00,
2013-05-08 08:04:00,54.7,50.0,29.65,West,280,0.0,0.0,84,0.00,,---,0.00,VWS V13.01,2013-05-08 15:04:00,
2013-05-08 08:05:00,54.7,50.0,29.65,West,279,0.0,0.0,84,0.00,,---,0.00,VWS V13.01,2013-05-08 15:05:00,
2013-05-08 08:06:00,54.7,50.0,29.65,West,279,0.0,0.0,84,0.00,,---,0.00,VWS V13.01,2013-05-08 15:06:00,
2013-05-08 08:07:00,54.7,50.0,29.65,West,259,0.0,0.0,84,0.00,,---,0.00,VWS V13.01,2013-05-08 15:07:00,
2013-05-08 08:08:00,55.0,50.3,29.65,West,259,0.0,0.0,84,0.00,,---,0.00,VWS V13.01,2013-05-08 15:08:00,
2013-05-08 08:09:00,55.0,50.3,29.65,West,259,0.0,0.0,84,0.00,,---,0.00,VWS V13.01,2013-05-08 15:09:00,
2013-05-08 08:10:00,55.0,50.3,29.65,West,259,0.0,0.0,84,0.00,,---,0.00,VWS V13.01,2013-05-08 15:10:00,
2013-05-08 08:11:00,55.0,50.3,29.65,West,259,0.0,0.0,84,0.00,,---,0.00,VWS V13.01,2013-05-08 15:11:00,
2013-05-08 08:13:00,55.2,50.5,29.68,WSW,254,0.0,0.0,84,0.00,,---,0.00,VWS V13.01,2013-05-08 15:13:00,
2013-05-08 08:15:00,55.4,50.3,29.68,WSW,254,0.0,0.0,83,0.00,,---,0.00,VWS V13.01,2013-05-08 15:15:00,
2013-05-08 08:16:00,55.4,50.3,29.68,West,271,0.0,0.0,83,0.00,,---,0.00,VWS V13.01,2013-05-08 15:16:00,
2013-05-08 08:18:00,55.4,50.3,29.68,West,271,0.0,0.0,83,0.00,,---,0.00,VWS V13.01,2013-05-08 15:18:00,
2013-05-08 08:20:00,55.4,50.3,29.68,West,271,0.0,0.0,83,0.00,,---,0.00,VWS V13.01,2013-05-08 15:20:00,
2013-05-08 08:21:00,55.4,50.3,29.68,West,271,0.0,0.0,83,0.00,,---,0.00,VWS V13.01,2013-05-08 15:21:00,
2013-05-08 08:23:00,55.4,50.3,29.68,West,271,0.0,0.0,83,0.00,,---,0.00,VWS V13.01,2013-05-08 15:23:00,
2013-05-08 08:25:00,55.4,50.3,29.68,West,271,0.0,0.0,83,0.00,,---,0.00,VWS V13.01,2013-05-08 15:25:00,
2013-05-08 08:26:00,55.6,50.5,29.68,West,270,0.0,0.0,83,0.00,,---,0.00,VWS V13.01,2013-05-08 15:26:00,
2013-05-08 08:28:00,55.6,50.5,29.68,SSW,200,0.0,0.0,83,0.00,,---,0.00,VWS V13.01,2013-05-08 15:28:00,
2013-05-08 08:31:00,55.8,50.7,29.68,WSW,258,0.0,0.0,83,0.00,,---,0.00,VWS V13.01,2013-05-08 15:31:00,
2013-05-08 08:33:00,55.8,50.7,29.68,WSW,239,2.7,2.7,83,0.00,,---,0.00,VWS V13.01,2013-05-08 15:33:00,
2013-05-08 08:36:00,55.6,50.5,29.68,West,267,0.0,3.6,83,0.00,,---,0.00,VWS V13.01,2013-05-08 15:36:00,
2013-05-08 08:37:00,55.6,50.5,29.68,West,267,0.0,3.6,83,0.00,,---,0.00,VWS V13.01,2013-05-08 15:37:00,
2013-05-08 08:38:00,55.6,50.5,29.68,West,267,0.0,0.0,83,0.00,,---,0.00,VWS V13.01,2013-05-08 15:38:00,
2013-05-08 08:41:00,55.6,50.5,29.68,West,279,4.0,4.0,83,0.00,,---,0.00,VWS V13.01,2013-05-08 15:41:00,
2013-05-08 08:42:00,55.6,50.5,29.68,West,279,4.0,4.0,83,0.00,,---,0.00,VWS V13.01,2013-05-08 15:42:00,
2013-05-08 08:43:00,55.2,50.5,29.68,West,279,4.0,4.0,84,0.00,,---,0.00,VWS V13.01,2013-05-08 15:43:00,
2013-05-08 08:46:00,55.4,50.3,29.68,West,260,0.0,0.0,83,0.00,,---,0.00,VWS V13.01,2013-05-08 15:46:00,
2013-05-08 08:47:00,55.4,50.3,29.68,West,260,0.0,0.0,83,0.00,,---,0.00,VWS V13.01,2013-05-08 15:47:00,
2013-05-08 08:48:00,55.6,50.5,29.68,West,260,0.0,0.0,83,0.00,,---,0.00,VWS V13.01,2013-05-08 15:48:00,
2013-05-08 08:49:00,55.6,50.5,29.68,West,260,0.0,0.0,83,0.00,,---,0.00,VWS V13.01,2013-05-08 15:49:00,
2013-05-08 08:51:00,55.6,50.5,29.68,West,260,0.0,0.0,83,0.00,,---,0.00,VWS V13.01,2013-05-08 15:51:00,
2013-05-08 08:52:00,55.8,50.7,29.68,West,260,0.0,0.0,83,0.00,,---,0.00,VWS V13.01,2013-05-08 15:52:00,
2013-05-08 08:53:00,55.8,50.7,29.68,West,260,0.0,0.0,83,0.00,,---,0.00,VWS V13.01,2013-05-08 15:53:00,
2013-05-08 08:54:00,55.8,50.7,29.68,West,260,0.0,0.0,83,0.00,,---,0.00,VWS V13.01,2013-05-08 15:54:00,
2013-05-08 08:56:00,55.8,50.7,29.68,West,260,0.0,0.0,83,0.00,,---,0.00,VWS V13.01,2013-05-08 15:56:00,
2013-05-08 08:57:00,55.9,50.9,29.68,West,260,0.0,0.0,83,0.00,,---,0.00,VWS V13.01,2013-05-08 15:57:00,
2013-05-08 08:59:00,55.9,50.9,29.68,West,260,0.0,0.0,83,0.00,,---,0.00,VWS V13.01,2013-05-08 15:59:00,
2013-05-08 09:01:00,55.9,50.9,29.68,West,260,0.0,0.0,83,0.00,,---,0.00,VWS V13.01,2013-05-08 16:01:00,
2013-05-08 09:02:00,56.3,50.9,29.68,West,260,0.0,0.0,82,0.00,,---,0.00,VWS V13.01,2013-05-08 16:02:00,
2013-05-08 09:04:00,56.3,50.9,29.68,West,260,0.0,0.0,82,0.00,,---,0.00,VWS V13.01,2013-05-08 16:04:00,
2013-05-08 09:06:00,56.3,50.9,29.68,West,260,0.0,0.0,82,0.00,,---,0.00,VWS V13.01,2013-05-08 16:06:00,
2013-05-08 09:07:00,56.3,50.9,29.68,West,260,0.0,0.0,82,0.00,,---,0.00,VWS V13.01,2013-05-08 16:07:00,
2013-05-08 09:09:00,56.3,50.9,29.68,West,260,0.0,0.0,82,0.00,,---,0.00,VWS V13.01,2013-05-08 16:09:00,
2013-05-08 09:12:00,56.5,51.1,29.68,West,260,0.0,0.0,82,0.00,,---,0.00,VWS V13.01,2013-05-08 16:12:00,
2013-05-08 09:14:00,56.5,51.1,29.68,West,260,0.0,0.0,82,0.00,,---,0.00,VWS V13.01,2013-05-08 16:14:00,
2013-05-08 09:17:00,56.7,51.2,29.68,West,260,0.0,0.0,82,0.00,,---,0.00,VWS V13.01,2013-05-08 16:17:00,
2013-05-08 09:19:00,56.3,50.9,29.68,West,260,0.0,0.0,82,0.00,,---,0.00,VWS V13.01,2013-05-08 16:19:00,
2013-05-08 09:22:00,56.3,50.9,29.68,West,260,0.0,0.0,82,0.00,,---,0.00,VWS V13.01,2013-05-08 16:22:00,
2013-05-08 09:23:00,56.3,50.9,29.68,West,260,0.0,0.0,82,0.00,,---,0.00,VWS V13.01,2013-05-08 16:23:00,
2013-05-08 09:24:00,56.3,50.9,29.68,North,6,0.0,0.0,82,0.00,,---,0.00,VWS V13.01,2013-05-08 16:24:00,
2013-05-08 09:27:00,56.1,50.7,29.68,North,6,0.0,0.0,82,0.00,,---,0.00,VWS V13.01,2013-05-08 16:27:00,
2013-05-08 09:28:00,55.9,50.5,29.68,North,6,0.0,0.0,82,0.00,,---,0.00,VWS V13.01,2013-05-08 16:28:00,
2013-05-08 09:29:00,55.9,50.5,29.68,North,6,0.0,0.0,82,0.00,,---,0.00,VWS V13.01,2013-05-08 16:29:00,
2013-05-08 09:32:00,56.3,51.2,29.68,North,6,0.0,0.0,83,0.00,,---,0.00,VWS V13.01,2013-05-08 16:32:00,
2013-05-08 09:33:00,56.3,51.2,29.68,North,6,0.0,0.0,83,0.00,,---,0.00,VWS V13.01,2013-05-08 16:33:00,
2013-05-08 09:34:00,56.3,50.9,29.68,North,6,0.0,0.0,82,0.00,,---,0.00,VWS V13.01,2013-05-08 16:34:00,
2013-05-08 09:35:00,56.3,50.9,29.68,North,6,0.0,0.0,82,0.00,,---,0.00,VWS V13.01,2013-05-08 16:35:00,
2013-05-08 09:37:00,56.7,51.2,29.68,ENE,77,0.0,0.0,82,0.00,,---,0.00,VWS V13.01,2013-05-08 16:37:00,
2013-05-08 09:38:00,56.7,51.2,29.68,West,280,3.6,3.6,82,0.00,,---,0.00,VWS V13.01,2013-05-08 16:38:00,
2013-05-08 09:39:00,56.8,51.4,29.68,West,280,3.6,3.6,82,0.00,,---,0.00,VWS V13.01,2013-05-08 16:39:00,
2013-05-08 09:40:00,56.8,51.4,29.68,WNW,291,0.0,3.6,82,0.00,,---,0.00,VWS V13.01,2013-05-08 16:40:00,
2013-05-08 09:43:00,56.8,51.1,29.68,WNW,291,0.0,0.0,81,0.00,,---,0.00,VWS V13.01,2013-05-08 16:43:00,
2013-05-08 09:44:00,56.8,51.1,29.68,SSW,208,3.1,3.1,81,0.00,,---,0.00,VWS V13.01,2013-05-08 16:44:00,
2013-05-08 09:45:00,56.8,51.1,29.68,SSW,208,3.1,3.1,81,0.00,,---,0.00,VWS V13.01,2013-05-08 16:45:00,
2013-05-08 09:48:00,56.8,51.1,29.68,SE,143,2.7,2.7,81,0.00,,---,0.00,VWS V13.01,2013-05-08 16:48:00,
2013-05-08 09:49:00,56.8,50.7,29.68,SE,143,2.7,2.7,80,0.00,,---,0.00,VWS V13.01,2013-05-08 16:49:00,
2013-05-08 09:50:00,56.8,50.7,29.68,SE,143,2.7,2.7,80,0.00,,---,0.00,VWS V13.01,2013-05-08 16:50:00,
2013-05-08 09:53:00,57.0,50.9,29.68,SW,221,0.0,0.0,80,0.00,,---,0.00,VWS V13.01,2013-05-08 16:53:00,
2013-05-08 09:54:00,57.0,50.9,29.68,NNE,33,0.0,0.0,80,0.00,,---,0.00,VWS V13.01,2013-05-08 16:54:00,
2013-05-08 09:55:00,57.0,50.9,29.68,NNE,33,0.0,0.0,80,0.00,,---,0.00,VWS V13.01,2013-05-08 16:55:00,
2013-05-08 09:58:00,56.8,51.1,29.68,NNE,33,0.0,0.0,81,0.00,,---,0.00,VWS V13.01,2013-05-08 16:58:00,
2013-05-08 09:59:00,56.8,51.1,29.68,NNE,33,0.0,0.0,81,0.00,,---,0.00,VWS V13.01,2013-05-08 16:59:00,
2013-05-08 10:00:00,56.8,51.1,29.68,NNE,33,0.0,0.0,81,0.00,,---,0.00,VWS V13.01,2013-05-08 17:00:00,
2013-05-08 10:03:00,57.0,51.3,29.68,NNE,33,0.0,0.0,81,0.00,,---,0.00,VWS V13.01,2013-05-08 17:03:00,
2013-05-08 10:04:00,57.0,51.3,29.68,NNE,33,0.0,0.0,81,0.00,,---,0.00,VWS V13.01,2013-05-08 17:04:00,
2013-05-08 10:05:00,57.0,51.3,29.68,SE,139,0.0,0.0,81,0.00,,---,0.00,VWS V13.01,2013-05-08 17:05:00,
2013-05-08 10:08:00,57.6,51.5,29.68,SE,139,0.0,0.0,80,0.00,,---,0.00,VWS V13.01,2013-05-08 17:08:00,
2013-05-08 10:10:00,57.7,51.6,29.68,SE,140,0.0,0.0,80,0.00,,---,0.00,VWS V13.01,2013-05-08 17:10:00,
2013-05-08 10:13:00,57.7,51.6,29.68,SE,140,0.0,0.0,80,0.00,,---,0.00,VWS V13.01,2013-05-08 17:13:00,
2013-05-08 10:15:00,57.9,51.5,29.68,WSW,242,2.7,2.7,79,0.00,,---,0.00,VWS V13.01,2013-05-08 17:15:00,
2013-05-08 10:16:00,57.9,51.5,29.68,WSW,242,2.7,2.7,79,0.00,,---,0.00,VWS V13.01,2013-05-08 17:16:00,
2013-05-08 10:18:00,57.9,51.5,29.68,SW,230,0.0,4.0,79,0.00,,---,0.00,VWS V13.01,2013-05-08 17:18:00,
2013-05-08 10:20:00,57.9,51.5,29.68,SW,230,0.0,0.0,79,0.00,,---,0.00,VWS V13.01,2013-05-08 17:20:00,
2013-05-08 10:22:00,57.9,51.5,29.68,SW,234,0.0,0.0,79,0.00,,---,0.00,VWS V13.01,2013-05-08 17:22:00,
2013-05-08 10:23:00,57.9,51.5,29.68,SW,234,0.0,0.0,79,0.00,,---,0.00,VWS V13.01,2013-05-08 17:23:00,
2013-05-08 10:24:00,57.9,51.5,29.68,SW,234,0.0,0.0,79,0.00,,---,0.00,VWS V13.01,2013-05-08 17:24:00,
2013-05-08 10:25:00,57.7,51.3,29.68,WSW,237,4.9,4.9,79,0.00,,---,0.00,VWS V13.01,2013-05-08 17:25:00,
2013-05-08 10:27:00,57.7,51.3,29.68,South,170,2.7,2.7,79,0.00,,---,0.00,VWS V13.01,2013-05-08 17:27:00,
2013-05-08 10:28:00,57.6,51.1,29.68,South,187,2.2,2.2,79,0.00,,---,0.00,VWS V13.01,2013-05-08 17:28:00,
2013-05-08 10:29:00,57.6,51.1,29.68,WSW,246,2.2,2.2,79,0.00,,---,0.00,VWS V13.01,2013-05-08 17:29:00,
2013-05-08 10:30:00,57.6,51.1,29.68,WSW,246,2.7,2.7,79,0.00,,---,0.00,VWS V13.01,2013-05-08 17:30:00,
2013-05-08 10:31:00,57.6,51.1,29.68,WSW,246,2.7,2.7,79,0.00,,---,0.00,VWS V13.01,2013-05-08 17:31:00,
2013-05-08 10:32:00,57.6,51.1,29.68,WSW,247,0.0,0.0,79,0.00,,---,0.00,VWS V13.01,2013-05-08 17:32:00,
2013-05-08 10:33:00,57.7,50.9,29.68,WSW,246,0.0,0.0,78,0.00,,---,0.00,VWS V13.01,2013-05-08 17:33:00,
2013-05-08 10:35:00,57.7,50.9,29.68,WSW,246,0.0,0.0,78,0.00,,---,0.00,VWS V13.01,2013-05-08 17:35:00,
2013-05-08 10:36:00,57.7,50.9,29.68,WSW,246,0.0,0.0,78,0.00,,---,0.00,VWS V13.01,2013-05-08 17:36:00,
2013-05-08 10:37:00,57.9,50.8,29.68,WSW,246,0.0,0.0,77,0.00,,---,0.00,VWS V13.01,2013-05-08 17:37:00,
2013-05-08 10:38:00,57.7,50.6,29.68,WSW,246,0.0,0.0,77,0.00,,---,0.00,VWS V13.01,2013-05-08 17:38:00,
2013-05-08 10:40:00,57.7,50.6,29.68,West,272,0.0,0.0,77,0.00,,---,0.00,VWS V13.01,2013-05-08 17:40:00,
2013-05-08 10:41:00,57.6,50.4,29.68,West,267,3.6,3.6,77,0.00,,---,0.00,VWS V13.01,2013-05-08 17:41:00,
2013-05-08 10:42:00,57.6,50.4,29.68,West,267,3.6,3.6,77,0.00,,---,0.00,VWS V13.01,2013-05-08 17:42:00,
2013-05-08 10:44:00,57.6,50.4,29.68,West,267,3.6,3.6,77,0.00,,---,0.00,VWS V13.01,2013-05-08 17:44:00,
2013-05-08 10:45:00,57.6,50.4,29.68,WNW,286,3.6,3.6,77,0.00,,---,0.00,VWS V13.01,2013-05-08 17:45:00,
2013-05-08 10:46:00,57.4,50.2,29.68,WNW,286,3.6,3.6,77,0.00,,---,0.00,VWS V13.01,2013-05-08 17:46:00,
2013-05-08 10:47:00,57.4,50.2,29.68,West,277,2.7,2.7,77,0.00,,---,0.00,VWS V13.01,2013-05-08 17:47:00,
2013-05-08 10:49:00,57.4,50.2,29.68,SE,137,0.0,0.0,77,0.00,,---,0.00,VWS V13.01,2013-05-08 17:49:00,
2013-05-08 10:50:00,57.4,50.2,29.68,SE,137,0.0,0.0,77,0.00,,---,0.00,VWS V13.01,2013-05-08 17:50:00,
2013-05-08 10:51:00,57.4,50.2,29.68,SE,137,0.0,0.0,77,0.00,,---,0.00,VWS V13.01,2013-05-08 17:51:00,
2013-05-08 10:52:00,57.7,50.6,29.68,SE,137,0.0,0.0,77,0.00,,---,0.00,VWS V13.01,2013-05-08 17:52:00,
2013-05-08 10:54:00,57.7,50.6,29.68,West,271,4.9,4.9,77,0.00,,---,0.00,VWS V13.01,2013-05-08 17:54:00,
2013-05-08 10:55:00,57.4,50.2,29.68,West,271,4.9,4.9,77,0.00,,---,0.00,VWS V13.01,2013-05-08 17:55:00,
2013-05-08 10:56:00,57.4,50.2,29.68,West,271,4.9,4.9,77,0.00,,---,0.00,VWS V13.01,2013-05-08 17:56:00,
2013-05-08 10:58:00,57.4,50.2,29.68,West,271,4.9,4.9,77,0.00,,---,0.00,VWS V13.01,2013-05-08 17:58:00,
2013-05-08 10:59:00,57.4,50.2,29.68,WSW,256,0.0,4.9,77,0.00,,---,0.00,VWS V13.01,2013-05-08 17:59:00,
2013-05-08 11:00:00,57.4,50.2,29.68,WSW,256,0.0,4.9,77,0.00,,---,0.00,VWS V13.01,2013-05-08 18:00:00,
2013-05-08 11:01:00,57.7,50.6,29.68,West,279,2.7,2.7,77,0.00,,---,0.00,VWS V13.01,2013-05-08 18:01:00,
2013-05-08 11:03:00,57.9,50.8,29.68,SSW,197,3.6,3.6,77,0.00,,---,0.00,VWS V13.01,2013-05-08 18:03:00,
2013-05-08 11:04:00,57.9,50.8,29.68,SSW,197,3.6,3.6,77,0.00,,---,0.00,VWS V13.01,2013-05-08 18:04:00,
2013-05-08 11:05:00,57.9,50.8,29.68,SSW,197,3.6,3.6,77,0.00,,---,0.00,VWS V13.01,2013-05-08 18:05:00,
2013-05-08 11:06:00,57.6,50.4,29.68,SSW,197,3.6,3.6,77,0.00,,---,0.00,VWS V13.01,2013-05-08 18:06:00,
2013-05-08 11:08:00,57.4,50.2,29.68,West,277,2.7,2.7,77,0.00,,---,0.00,VWS V13.01,2013-05-08 18:08:00,
2013-05-08 11:09:00,57.4,50.2,29.68,West,277,2.7,2.7,77,0.00,,---,0.00,VWS V13.01,2013-05-08 18:09:00,
2013-05-08 11:10:00,57.4,50.2,29.68,West,277,2.7,2.7,77,0.00,,---,0.00,VWS V13.01,2013-05-08 18:10:00,
2013-05-08 11:11:00,57.4,50.2,29.68,West,277,2.7,2.7,77,0.00,,---,0.00,VWS V13.01,2013-05-08 18:11:00,
2013-05-08 11:13:00,57.6,50.4,29.68,West,264,4.0,4.0,77,0.00,,---,0.00,VWS V13.01,2013-05-08 18:13:00,
2013-05-08 11:15:00,57.6,50.4,29.68,WSW,251,0.0,4.0,77,0.00,,---,0.00,VWS V13.01,2013-05-08 18:15:00,
2013-05-08 11:16:00,57.6,50.4,29.68,West,264,2.7,2.7,77,0.00,,---,0.00,VWS V13.01,2013-05-08 18:16:00,
2013-05-08 11:18:00,57.6,50.4,29.68,West,264,2.7,2.7,77,0.00,,---,0.00,VWS V13.01,2013-05-08 18:18:00,
2013-05-08 11:20:00,57.6,50.4,29.68,West,264,2.7,2.7,77,0.00,,---,0.00,VWS V13.01,2013-05-08 18:20:00,
2013-05-08 11:21:00,57.6,50.4,29.68,WNW,283,3.6,3.6,77,0.00,,---,0.00,VWS V13.01,2013-05-08 18:21:00,
2013-05-08 11:22:00,57.6,50.4,29.68,WNW,283,3.6,3.6,77,0.00,,---,0.00,VWS V13.01,2013-05-08 18:22:00,
2013-05-08 11:23:00,57.7,50.6,29.68,WNW,283,0.0,0.0,77,0.00,,---,0.00,VWS V13.01,2013-05-08 18:23:00,
2013-05-08 11:25:00,57.7,50.6,29.68,West,263,3.6,4.0,77,0.00,,---,0.00,VWS V13.01,2013-05-08 18:25:00,
2013-05-08 11:27:00,57.7,50.6,29.68,West,268,4.0,4.0,77,0.00,,---,0.00,VWS V13.01,2013-05-08 18:27:00,
2013-05-08 11:28:00,58.1,50.9,29.68,West,265,0.0,4.0,77,0.00,,---,0.00,VWS V13.01,2013-05-08 18:28:00,
2013-05-08 11:30:00,58.1,50.9,29.68,West,265,0.0,0.0,77,0.00,,---,0.00,VWS V13.01,2013-05-08 18:30:00,
2013-05-08 11:32:00,58.3,50.8,29.68,West,265,0.0,0.0,76,0.00,,---,0.00,VWS V13.01,2013-05-08 18:32:00,
2013-05-08 11:34:00,58.3,50.8,29.68,South,191,3.1,4.0,76,0.00,,---,0.00,VWS V13.01,2013-05-08 18:34:00,
2013-05-08 11:35:00,58.3,50.8,29.68,WSW,258,4.0,4.0,76,0.00,,---,0.00,VWS V13.01,2013-05-08 18:35:00,
2013-05-08 11:37:00,58.3,50.8,29.68,West,267,3.1,3.1,76,0.00,,---,0.00,VWS V13.01,2013-05-08 18:37:00,
2013-05-08 11:39:00,58.5,50.9,29.68,SSE,151,2.2,2.2,76,0.00,,---,0.00,VWS V13.01,2013-05-08 18:39:00,
2013-05-08 11:40:00,58.5,50.9,29.68,West,277,4.0,4.0,76,0.00,,---,0.00,VWS V13.01,2013-05-08 18:40:00,
2013-05-08 11:41:00,58.5,50.6,29.68,West,277,4.0,4.0,75,0.00,,---,0.00,VWS V13.01,2013-05-08 18:41:00,
2013-05-08 11:42:00,58.3,50.4,29.68,WSW,244,2.7,4.0,75,0.00,,---,0.00,VWS V13.01,2013-05-08 18:42:00,
2013-05-08 11:44:00,58.3,50.4,29.68,SW,231,2.7,2.7,75,0.00,,---,0.00,VWS V13.01,2013-05-08 18:44:00,
2013-05-08 11:45:00,58.3,50.4,29.68,SW,231,2.7,2.7,75,0.00,,---,0.00,VWS V13.01,2013-05-08 18:45:00,
2013-05-08 11:46:00,58.3,50.4,29.68,SW,231,2.7,2.7,75,0.00,,---,0.00,VWS V13.01,2013-05-08 18:46:00,
2013-05-08 11:47:00,58.5,50.6,29.68,WNW,301,3.6,3.6,75,0.00,,---,0.00,VWS V13.01,2013-05-08 18:47:00,
2013-05-08 11:48:00,58.5,50.6,29.68,WNW,301,3.6,3.6,75,0.00,,---,0.00,VWS V13.01,2013-05-08 18:48:00,
2013-05-08 11:49:00,58.5,50.6,29.68,West,276,4.0,4.0,75,0.00,,---,0.00,VWS V13.01,2013-05-08 18:49:00,
2013-05-08 11:50:00,58.3,50.4,29.68,West,276,4.0,4.0,75,0.00,,---,0.00,VWS V13.01,2013-05-08 18:50:00,
2013-05-08 11:51:00,58.3,50.4,29.68,South,176,2.2,4.0,75,0.00,,---,0.00,VWS V13.01,2013-05-08 18:51:00,
2013-05-08 11:52:00,58.3,50.4,29.68,WSW,258,2.2,2.2,75,0.00,,---,0.00,VWS V13.01,2013-05-08 18:52:00,
2013-05-08 11:53:00,58.3,50.4,29.68,West,278,2.7,2.7,75,0.00,,---,0.00,VWS V13.01,2013-05-08 18:53:00,
2013-05-08 11:54:00,58.5,50.9,29.71,West,278,2.7,2.7,76,0.00,,---,0.00,VWS V13.01,2013-05-08 18:54:00,
2013-05-08 11:55:00,58.5,50.9,29.71,WNW,293,3.6,5.4,76,0.00,,---,0.00,VWS V13.01,2013-05-08 18:55:00,
2013-05-08 11:56:00,58.5,50.9,29.71,WNW,300,4.9,4.9,76,0.00,,---,0.00,VWS V13.01,2013-05-08 18:56:00,
2013-05-08 11:57:00,58.5,50.9,29.71,WNW,300,4.9,4.9,76,0.00,,---,0.00,VWS V13.01,2013-05-08 18:57:00,
2013-05-08 11:58:00,58.5,50.9,29.71,WNW,300,4.9,4.9,76,0.00,,---,0.00,VWS V13.01,2013-05-08 18:58:00,
2013-05-08 11:59:00,58.3,50.4,29.71,WNW,300,4.9,4.9,75,0.00,,---,0.00,VWS V13.01,2013-05-08 18:59:00,
2013-05-08 12:00:00,58.3,50.4,29.71,WSW,242,4.9,4.9,75,0.00,,---,0.00,VWS V13.01,2013-05-08 19:00:00,
2013-05-08 12:01:00,58.3,50.4,29.71,WSW,248,0.0,4.9,75,0.00,,---,0.00,VWS V13.01,2013-05-08 19:01:00,
2013-05-08 12:02:00,58.3,50.4,29.71,WSW,248,0.0,0.0,75,0.00,,---,0.00,VWS V13.01,2013-05-08 19:02:00,
2013-05-08 12:03:00,58.3,50.4,29.71,West,262,3.1,3.1,75,0.00,,---,0.00,VWS V13.01,2013-05-08 19:03:00,
2013-05-08 12:04:00,58.6,51.1,29.71,West,261,4.0,4.0,76,0.00,,---,0.00,VWS V13.01,2013-05-08 19:04:00,
2013-05-08 12:06:00,58.6,51.1,29.71,West,273,2.7,4.0,76,0.00,,---,0.00,VWS V13.01,2013-05-08 19:06:00,
2013-05-08 12:07:00,58.6,50.8,29.71,West,273,2.7,2.7,75,0.00,,---,0.00,VWS V13.01,2013-05-08 19:07:00,
2013-05-08 12:08:00,58.6,50.8,29.71,WSW,254,0.0,2.7,75,0.00,,---,0.00,VWS V13.01,2013-05-08 19:08:00,
2013-05-08 12:09:00,58.8,50.9,29.71,WSW,253,2.7,2.7,75,0.00,,---,0.00,VWS V13.01,2013-05-08 19:09:00,
2013-05-08 12:11:00,58.8,50.9,29.71,WNW,291,0.0,0.0,75,0.00,,---,0.00,VWS V13.01,2013-05-08 19:11:00,
2013-05-08 12:12:00,58.8,50.9,29.71,WNW,291,0.0,0.0,75,0.00,,---,0.00,VWS V13.01,2013-05-08 19:12:00,
2013-05-08 12:13:00,59.0,51.1,29.71,SW,222,3.1,3.1,75,0.00,,---,0.00,VWS V13.01,2013-05-08 19:13:00,
2013-05-08 12:14:00,59.0,51.1,29.71,SW,222,3.1,3.1,75,0.00,,---,0.00,VWS V13.01,2013-05-08 19:14:00,
2013-05-08 12:16:00,59.0,51.1,29.71,SW,222,3.1,3.1,75,0.00,,---,0.00,VWS V13.01,2013-05-08 19:16:00,
2013-05-08 12:17:00,59.2,50.9,29.71,SW,222,3.1,3.1,74,0.00,,---,0.00,VWS V13.01,2013-05-08 19:17:00,
2013-05-08 12:19:00,59.2,50.9,29.71,SW,215,0.0,0.0,74,0.00,,---,0.00,VWS V13.01,2013-05-08 19:19:00,
2013-05-08 12:21:00,59.2,50.9,29.71,WSW,249,4.0,4.0,74,0.00,,---,0.00,VWS V13.01,2013-05-08 19:21:00,
2013-05-08 12:22:00,59.2,50.9,29.71,West,259,3.1,4.0,74,0.00,,---,0.00,VWS V13.01,2013-05-08 19:22:00,
2013-05-08 12:23:00,59.0,50.7,29.71,West,259,3.1,4.0,74,0.00,,---,0.00,VWS V13.01,2013-05-08 19:23:00,
2013-05-08 12:24:00,59.0,50.7,29.71,West,259,3.1,3.1,74,0.00,,---,0.00,VWS V13.01,2013-05-08 19:24:00,
2013-05-08 12:26:00,59.0,50.7,29.68,SSW,211,3.6,3.6,74,0.00,,---,0.00,VWS V13.01,2013-05-08 19:26:00,
2013-05-08 12:27:00,59.0,50.7,29.68,WNW,294,2.7,2.7,74,0.00,,---,0.00,VWS V13.01,2013-05-08 19:27:00,
2013-05-08 12:28:00,59.0,50.7,29.68,South,169,2.7,2.7,74,0.00,,---,0.00,VWS V13.01,2013-05-08 19:28:00,
2013-05-08 12:29:00,59.0,50.7,29.68,SW,218,2.7,2.7,74,0.00,,---,0.00,VWS V13.01,2013-05-08 19:29:00,
2013-05-08 12:30:00,59.0,50.7,29.68,SW,218,2.7,2.7,74,0.00,,---,0.00,VWS V13.01,2013-05-08 19:30:00,
2013-05-08 12:31:00,59.0,50.7,29.68,SE,138,0.0,2.2,74,0.00,,---,0.00,VWS V13.01,2013-05-08 19:31:00,
2013-05-08 12:32:00,59.4,50.7,29.68,SE,138,0.0,0.0,73,0.00,,---,0.00,VWS V13.01,2013-05-08 19:32:00,
2013-05-08 12:33:00,59.4,50.7,29.68,SW,225,0.0,0.0,73,0.00,,---,0.00,VWS V13.01,2013-05-08 19:33:00,
2013-05-08 12:34:00,59.4,50.7,29.68,SW,225,0.0,0.0,73,0.00,,---,0.00,VWS V13.01,2013-05-08 19:34:00,
2013-05-08 12:35:00,59.2,50.5,29.68,WNW,283,3.6,3.6,73,0.00,,---,0.00,VWS V13.01,2013-05-08 19:35:00,
2013-05-08 12:36:00,59.2,50.5,29.68,WNW,283,3.6,3.6,73,0.00,,---,0.00,VWS V13.01,2013-05-08 19:36:00,
2013-05-08 12:38:00,59.2,50.5,29.68,WSW,257,5.4,5.4,73,0.00,,---,0.00,VWS V13.01,2013-05-08 19:38:00,
2013-05-08 12:39:00,59.2,50.5,29.68,SSW,202,0.0,0.0,73,0.00,,---,0.00,VWS V13.01,2013-05-08 19:39:00,
2013-05-08 12:40:00,59.5,50.9,29.68,SW,230,3.1,3.1,73,0.00,,---,0.00,VWS V13.01,2013-05-08 19:40:00,
2013-05-08 12:41:00,59.7,51.1,29.68,WNW,290,4.0,4.0,73,0.00,,---,0.00,VWS V13.01,2013-05-08 19:41:00,
2013-05-08 12:43:00,59.7,51.1,29.68,WNW,290,4.0,4.0,73,0.00,,---,0.00,VWS V13.01,2013-05-08 19:43:00,
2013-05-08 12:44:00,59.2,50.5,29.68,West,267,3.1,4.0,73,0.00,,---,0.00,VWS V13.01,2013-05-08 19:44:00,
2013-05-08 12:45:00,59.2,50.5,29.68,South,188,3.6,3.6,73,0.00,,---,0.00,VWS V13.01,2013-05-08 19:45:00,
2013-05-08 12:46:00,59.2,50.5,29.68,South,176,2.2,3.6,73,0.00,,---,0.00,VWS V13.01,2013-05-08 19:46:00,
2013-05-08 12:48:00,59.2,50.5,29.68,South,176,2.2,2.2,73,0.00,,---,0.00,VWS V13.01,2013-05-08 19:48:00,
2013-05-08 12:49:00,59.2,50.5,29.68,West,274,3.1,3.1,73,0.00,,---,0.00,VWS V13.01,2013-05-08 19:49:00,
2013-05-08 12:50:00,59.7,51.1,29.68,West,274,3.1,3.1,73,0.00,,---,0.00,VWS V13.01,2013-05-08 19:50:00,
2013-05-08 12:52:00,59.7,51.1,29.68,West,274,3.1,3.1,73,0.00,,---,0.00,VWS V13.01,2013-05-08 19:52:00,
2013-05-08 12:53:00,59.7,51.1,29.68,SE,138,0.0,2.7,73,0.00,,---,0.00,VWS V13.01,2013-05-08 19:53:00,
2013-05-08 12:54:00,59.7,51.1,29.68,SE,138,0.0,0.0,73,0.00,,---,0.00,VWS V13.01,2013-05-08 19:54:00,
2013-05-08 12:55:00,59.7,51.1,29.68,SE,138,0.0,0.0,73,0.00,,---,0.00,VWS V13.01,2013-05-08 19:55:00,
2013-05-08 12:57:00,59.7,51.1,29.68,SW,215,4.0,4.0,73,0.00,,---,0.00,VWS V13.01,2013-05-08 19:57:00,
2013-05-08 12:58:00,59.7,51.1,29.68,West,259,4.0,4.0,73,0.00,,---,0.00,VWS V13.01,2013-05-08 19:58:00,
2013-05-08 12:59:00,59.7,51.1,29.68,West,259,4.0,4.0,73,0.00,,---,0.00,VWS V13.01,2013-05-08 19:59:00,
2013-05-08 13:00:00,59.9,50.9,29.68,West,260,2.7,2.7,72,0.00,,---,0.00,VWS V13.01,2013-05-08 20:00:00,
2013-05-08 13:02:00,59.9,50.9,29.68,WNW,287,4.9,4.9,72,0.00,,---,0.00,VWS V13.01,2013-05-08 20:02:00,
2013-05-08 13:03:00,59.7,50.7,29.68,WNW,287,4.9,4.9,72,0.00,,---,0.00,VWS V13.01,2013-05-08 20:03:00,
2013-05-08 13:04:00,59.7,50.7,29.68,WNW,287,4.9,4.9,72,0.00,,---,0.00,VWS V13.01,2013-05-08 20:04:00,
2013-05-08 13:05:00,59.7,50.7,29.68,West,265,2.2,2.2,72,0.00,,---,0.00,VWS V13.01,2013-05-08 20:05:00,
2013-05-08 13:06:00,59.7,50.7,29.68,West,265,2.2,2.2,72,0.00,,---,0.00,VWS V13.01,2013-05-08 20:06:00,
2013-05-08 13:07:00,59.7,50.7,29.68,WNW,285,3.6,3.6,72,0.00,,---,0.00,VWS V13.01,2013-05-08 20:07:00,
2013-05-08 13:08:00,59.7,50.7,29.68,WNW,285,3.6,3.6,72,0.00,,---,0.00,VWS V13.01,2013-05-08 20:08:00,
2013-05-08 13:09:00,59.7,50.7,29.68,WNW,285,3.6,3.6,72,0.00,,---,0.00,VWS V13.01,2013-05-08 20:09:00,
2013-05-08 13:10:00,59.5,50.5,29.68,WNW,285,3.6,3.6,72,0.00,,---,0.00,VWS V13.01,2013-05-08 20:10:00,
2013-05-08 13:11:00,59.5,50.5,29.68,West,279,2.7,2.7,72,0.00,,---,0.00,VWS V13.01,2013-05-08 20:11:00,
2013-05-08 13:12:00,59.5,50.5,29.68,West,280,2.2,2.2,72,0.00,,---,0.00,VWS V13.01,2013-05-08 20:12:00,
2013-05-08 13:13:00,59.5,50.5,29.68,WNW,284,0.0,2.2,72,0.00,,---,0.00,VWS V13.01,2013-05-08 20:13:00,
2013-05-08 13:14:00,59.4,50.3,29.68,West,265,3.1,3.1,72,0.00,,---,0.00,VWS V13.01,2013-05-08 20:14:00,
2013-05-08 13:15:00,59.4,50.3,29.68,WSW,251,4.9,4.9,72,0.00,,---,0.00,VWS V13.01,2013-05-08 20:15:00,
2013-05-08 13:16:00,59.4,50.3,29.68,WSW,251,4.9,4.9,72,0.00,,---,0.00,VWS V13.01,2013-05-08 20:16:00,
2013-05-08 13:17:00,59.4,50.3,29.68,WSW,251,4.9,4.9,72,0.00,,---,0.00,VWS V13.01,2013-05-08 20:17:00,
2013-05-08 13:18:00,59.4,50.3,29.68,WSW,251,4.9,4.9,72,0.00,,---,0.00,VWS V13.01,2013-05-08 20:18:00,
2013-05-08 13:19:00,59.4,50.3,29.68,WSW,251,4.9,4.9,72,0.00,,---,0.00,VWS V13.01,2013-05-08 20:19:00,
2013-05-08 13:20:00,59.4,50.3,29.68,West,279,5.4,5.4,72,0.00,,---,0.00,VWS V13.01,2013-05-08 20:20:00,
2013-05-08 13:21:00,59.5,50.5,29.68,West,279,5.4,5.4,72,0.00,,---,0.00,VWS V13.01,2013-05-08 20:21:00,
2013-05-08 13:22:00,59.5,50.5,29.68,West,279,5.4,5.4,72,0.00,,---,0.00,VWS V13.01,2013-05-08 20:22:00,
2013-05-08 13:23:00,59.5,50.5,29.68,WSW,252,0.0,5.4,72,0.00,,---,0.00,VWS V13.01,2013-05-08 20:23:00,
2013-05-08 13:24:00,59.5,50.5,29.68,SW,219,0.0,0.0,72,0.00,,---,0.00,VWS V13.01,2013-05-08 20:24:00,
2013-05-08 13:25:00,59.7,50.7,29.68,SW,219,0.0,0.0,72,0.00,,---,0.00,VWS V13.01,2013-05-08 20:25:00,
2013-05-08 13:26:00,59.7,50.7,29.68,West,273,3.6,3.6,72,0.00,,---,0.00,VWS V13.01,2013-05-08 20:26:00,
2013-05-08 13:28:00,59.7,50.7,29.68,West,266,3.1,3.6,72,0.00,,---,0.00,VWS V13.01,2013-05-08 20:28:00,
2013-05-08 13:29:00,59.7,50.7,29.68,West,266,2.2,2.2,72,0.00,,---,0.00,VWS V13.01,2013-05-08 20:29:00,
2013-05-08 13:30:00,59.9,50.9,29.68,West,266,2.2,2.2,72,0.00,,---,0.00,VWS V13.01,2013-05-08 20:30:00,
2013-05-08 13:31:00,59.9,50.9,29.68,West,266,2.2,2.2,72,0.00,,---,0.00,VWS V13.01,2013-05-08 20:31:00,
2013-05-08 13:33:00,59.9,50.9,29.68,SW,231,2.7,2.7,72,0.00,,---,0.00,VWS V13.01,2013-05-08 20:33:00,
2013-05-08 13:34:00,60.1,51.0,29.68,WNW,303,0.0,2.7,72,0.00,,---,0.00,VWS V13.01,2013-05-08 20:34:00,
2013-05-08 13:35:00,60.4,51.4,29.68,WNW,294,0.0,0.0,72,0.00,,---,0.00,VWS V13.01,2013-05-08 20:35:00,
2013-05-08 13:36:00,60.4,51.4,29.68,WNW,294,0.0,0.0,72,0.00,,---,0.00,VWS V13.01,2013-05-08 20:36:00,
2013-05-08 13:38:00,60.4,51.4,29.68,WSW,241,2.7,2.7,72,0.00,,---,0.00,VWS V13.01,2013-05-08 20:38:00,
2013-05-08 13:39:00,60.6,51.6,29.68,WSW,241,2.7,2.7,72,0.00,,---,0.00,VWS V13.01,2013-05-08 20:39:00,
2013-05-08 13:40:00,60.6,51.6,29.68,SSW,199,0.0,0.0,72,0.00,,---,0.00,VWS V13.01,2013-05-08 20:40:00,
2013-05-08 13:41:00,60.6,51.6,29.68,WSW,252,0.0,2.7,72,0.00,,---,0.00,VWS V13.01,2013-05-08 20:41:00,
2013-05-08 13:43:00,60.6,51.6,29.68,WSW,252,0.0,0.0,72,0.00,,---,0.00,VWS V13.01,2013-05-08 20:43:00,
2013-05-08 13:44:00,60.6,51.6,29.68,WSW,252,0.0,0.0,72,0.00,,---,0.00,VWS V13.01,2013-05-08 20:44:00,
2013-05-08 13:45:00,61.0,51.5,29.68,WSW,241,3.6,3.6,71,0.00,,---,0.00,VWS V13.01,2013-05-08 20:45:00,
2013-05-08 13:47:00,61.0,51.5,29.68,WSW,254,2.7,3.6,71,0.00,,---,0.00,VWS V13.01,2013-05-08 20:47:00,
2013-05-08 13:48:00,60.8,51.3,29.68,WSW,249,3.1,3.1,71,0.00,,---,0.00,VWS V13.01,2013-05-08 20:48:00,
2013-05-08 13:49:00,60.8,51.3,29.68,WSW,249,3.1,3.1,71,0.00,,---,0.00,VWS V13.01,2013-05-08 20:49:00,
2013-05-08 13:50:00,60.8,51.3,29.68,WNW,286,2.7,3.1,71,0.00,,---,0.00,VWS V13.01,2013-05-08 20:50:00,
2013-05-08 13:52:00,60.4,51.0,29.68,WNW,286,2.7,2.7,71,0.00,,---,0.00,VWS V13.01,2013-05-08 20:52:00,
2013-05-08 13:53:00,60.4,51.0,29.68,WSW,241,2.7,2.7,71,0.00,,---,0.00,VWS V13.01,2013-05-08 20:53:00,
2013-05-08 13:54:00,60.6,51.2,29.68,WSW,241,2.7,2.7,71,0.00,,---,0.00,VWS V13.01,2013-05-08 20:54:00,
2013-05-08 13:55:00,60.6,51.2,29.68,WSW,241,2.7,2.7,71,0.00,,---,0.00,VWS V13.01,2013-05-08 20:55:00,
2013-05-08 13:57:00,61.2,51.7,29.68,SSE,160,3.6,3.6,71,0.00,,---,0.00,VWS V13.01,2013-05-08 20:57:00,
2013-05-08 13:58:00,61.3,51.9,29.68,SSE,160,3.6,3.6,71,0.00,,---,0.00,VWS V13.01,2013-05-08 20:58:00,
2013-05-08 14:00:00,61.3,51.9,29.68,SE,145,0.0,0.0,71,0.00,,---,0.00,VWS V13.01,2013-05-08 21:00:00,
2013-05-08 14:02:00,61.3,51.9,29.68,SE,145,0.0,0.0,71,0.00,,---,0.00,VWS V13.01,2013-05-08 21:02:00,
2013-05-08 14:03:00,61.7,51.8,29.68,SE,145,0.0,0.0,70,0.00,,---,0.00,VWS V13.01,2013-05-08 21:03:00,
2013-05-08 14:05:00,61.7,51.8,29.68,NNE,24,0.0,0.0,70,0.00,,---,0.00,VWS V13.01,2013-05-08 21:05:00,
2013-05-08 14:07:00,61.9,52.0,29.68,WNW,286,3.1,3.1,70,0.00,,---,0.00,VWS V13.01,2013-05-08 21:07:00,
2013-05-08 14:08:00,61.9,52.0,29.68,WSW,258,4.0,4.0,70,0.00,,---,0.00,VWS V13.01,2013-05-08 21:08:00,
2013-05-08 14:10:00,61.9,52.0,29.68,West,263,3.6,3.6,70,0.00,,---,0.00,VWS V13.01,2013-05-08 21:10:00,
2013-05-08 14:11:00,61.9,52.0,29.68,West,263,3.6,3.6,70,0.00,,---,0.00,VWS V13.01,2013-05-08 21:11:00,
2013-05-08 14:12:00,61.9,52.0,29.68,West,263,3.6,3.6,70,0.00,,---,0.00,VWS V13.01,2013-05-08 21:12:00,
2013-05-08 14:13:00,61.9,52.0,29.68,WSW,241,3.1,3.6,70,0.00,,---,0.00,VWS V13.01,2013-05-08 21:13:00,
2013-05-08 14:15:00,61.9,52.0,29.68,WSW,241,3.1,3.1,70,0.00,,---,0.00,VWS V13.01,2013-05-08 21:15:00,
2013-05-08 14:16:00,61.9,52.0,29.68,WSW,241,3.1,3.1,70,0.00,,---,0.00,VWS V13.01,2013-05-08 21:16:00,
2013-05-08 14:17:00,61.5,51.3,29.68,West,261,3.1,3.1,69,0.00,,---,0.00,VWS V13.01,2013-05-08 21:17:00,
2013-05-08 14:19:00,61.5,51.3,29.68,West,261,3.1,3.1,69,0.00,,---,0.00,VWS V13.01,2013-05-08 21:19:00,
2013-05-08 14:20:00,61.5,51.3,29.68,WNW,290,0.0,4.0,69,0.00,,---,0.00,VWS V13.01,2013-05-08 21:20:00,
2013-05-08 14:21:00,61.5,51.3,29.68,WNW,290,0.0,4.0,69,0.00,,---,0.00,VWS V13.01,2013-05-08 21:21:00,
2013-05-08 14:23:00,61.5,51.3,29.68,SSE,154,0.0,0.0,69,0.00,,---,0.00,VWS V13.01,2013-05-08 21:23:00,
2013-05-08 14:24:00,61.7,51.4,29.68,SW,221,5.4,5.4,69,0.00,,---,0.00,VWS V13.01,2013-05-08 21:24:00,
2013-05-08 14:25:00,61.7,51.4,29.68,SW,221,5.4,5.4,69,0.00,,---,0.00,VWS V13.01,2013-05-08 21:25:00,
2013-05-08 14:26:00,61.7,51.4,29.68,SW,221,5.4,5.4,69,0.00,,---,0.00,VWS V13.01,2013-05-08 21:26:00,
2013-05-08 14:28:00,61.7,51.4,29.68,WSW,256,2.7,2.7,69,0.00,,---,0.00,VWS V13.01,2013-05-08 21:28:00,
2013-05-08 14:29:00,61.7,51.4,29.68,WSW,256,2.7,2.7,69,0.00,,---,0.00,VWS V13.01,2013-05-08 21:29:00,
2013-05-08 14:30:00,61.7,51.4,29.68,NE,39,2.2,3.6,69,0.00,,---,0.00,VWS V13.01,2013-05-08 21:30:00,
2013-05-08 14:31:00,61.7,51.4,29.68,NE,39,2.2,2.2,69,0.00,,---,0.00,VWS V13.01,2013-05-08 21:31:00,
2013-05-08 14:33:00,61.7,51.4,29.68,WSW,258,3.6,3.6,69,0.00,,---,0.00,VWS V13.01,2013-05-08 21:33:00,
2013-05-08 14:35:00,61.7,51.4,29.68,WSW,248,3.1,3.6,69,0.00,,---,0.00,VWS V13.01,2013-05-08 21:35:00,
2013-05-08 14:36:00,61.7,51.4,29.68,WNW,285,4.9,4.9,69,0.00,,---,0.00,VWS V13.01,2013-05-08 21:36:00,
2013-05-08 14:38:00,61.7,51.4,29.68,WNW,285,4.9,4.9,69,0.00,,---,0.00,VWS V13.01,2013-05-08 21:38:00,
2013-05-08 14:40:00,61.5,51.3,29.68,West,270,0.0,0.0,69,0.00,,---,0.00,VWS V13.01,2013-05-08 21:40:00,
2013-05-08 14:41:00,61.5,51.3,29.68,West,270,0.0,0.0,69,0.00,,---,0.00,VWS V13.01,2013-05-08 21:41:00,
2013-05-08 14:44:00,61.9,51.6,29.68,WNW,285,4.9,4.9,69,0.00,,---,0.00,VWS V13.01,2013-05-08 21:44:00,
2013-05-08 14:45:00,61.9,51.6,29.68,West,270,4.5,4.5,69,0.00,,---,0.00,VWS V13.01,2013-05-08 21:45:00,
2013-05-08 14:46:00,62.1,51.8,29.68,West,269,3.6,3.6,69,0.00,,---,0.00,VWS V13.01,2013-05-08 21:46:00,
2013-05-08 14:49:00,61.9,51.2,29.68,West,273,4.9,4.9,68,0.00,,---,0.00,VWS V13.01,2013-05-08 21:49:00,
2013-05-08 14:50:00,61.9,51.2,29.68,SW,230,0.0,4.9,68,0.00,,---,0.00,VWS V13.01,2013-05-08 21:50:00,
2013-05-08 14:51:00,61.9,51.2,29.68,SW,230,0.0,0.0,68,0.00,,---,0.00,VWS V13.01,2013-05-08 21:51:00,
2013-05-08 14:54:00,62.2,51.6,29.68,West,280,5.8,5.8,68,0.00,,---,0.00,VWS V13.01,2013-05-08 21:54:00,
2013-05-08 14:55:00,62.2,51.6,29.68,West,280,5.8,5.8,68,0.00,,---,0.00,VWS V13.01,2013-05-08 21:55:00,
2013-05-08 14:56:00,62.6,51.9,29.68,West,280,5.8,5.8,68,0.00,,---,0.00,VWS V13.01,2013-05-08 21:56:00,
2013-05-08 14:59:00,62.8,52.1,29.68,West,262,2.2,2.2,68,0.00,,---,0.00,VWS V13.01,2013-05-08 21:59:00,
2013-05-08 15:01:00,62.8,51.7,29.68,West,262,2.2,2.2,67,0.00,,---,0.00,VWS V13.01,2013-05-08 22:01:00,
2013-05-08 15:04:00,62.8,51.7,29.68,WNW,287,4.0,4.0,67,0.00,,---,0.00,VWS V13.01,2013-05-08 22:04:00,
2013-05-08 15:06:00,62.8,51.7,29.68,West,272,4.9,5.4,67,0.00,,---,0.00,VWS V13.01,2013-05-08 22:06:00,
2013-05-08 15:07:00,62.6,51.1,29.68,West,272,4.9,4.9,66,0.00,,---,0.00,VWS V13.01,2013-05-08 22:07:00,
2013-05-08 15:09:00,62.2,50.8,29.68,West,272,4.9,4.9,66,0.00,,---,0.00,VWS V13.01,2013-05-08 22:09:00,
2013-05-08 15:11:00,62.4,51.3,29.68,SW,232,2.7,2.7,67,0.00,,---,0.00,VWS V13.01,2013-05-08 22:11:00,
2013-05-08 15:12:00,62.4,51.3,29.68,WSW,256,0.0,2.7,67,0.00,,---,0.00,VWS V13.01,2013-05-08 22:12:00,
2013-05-08 15:14:00,63.1,51.6,29.68,WSW,257,0.0,0.0,66,0.00,,---,0.00,VWS V13.01,2013-05-08 22:14:00,
2013-05-08 15:16:00,63.5,52.0,29.68,SW,226,5.4,5.4,66,0.00,,---,0.00,VWS V13.01,2013-05-08 22:16:00,
2013-05-08 15:17:00,63.5,52.0,29.68,SW,226,5.4,5.4,66,0.00,,---,0.00,VWS V13.01,2013-05-08 22:17:00,
2013-05-08 15:19:00,63.9,52.3,29.68,WSW,257,3.6,5.4,66,0.00,,---,0.00,VWS V13.01,2013-05-08 22:19:00,
2013-05-08 15:21:00,63.9,52.3,29.68,West,265,6.3,6.3,66,0.00,,---,0.00,VWS V13.01,2013-05-08 22:21:00,
2013-05-08 15:22:00,63.9,52.3,29.68,West,265,6.3,6.3,66,0.00,,---,0.00,VWS V13.01,2013-05-08 22:22:00,
2013-05-08 15:25:00,63.9,51.9,29.68,SW,215,2.2,2.2,65,0.00,,---,0.00,VWS V13.01,2013-05-08 22:25:00,
2013-05-08 15:27:00,63.9,51.9,29.68,SW,218,2.2,2.2,65,0.00,,---,0.00,VWS V13.01,2013-05-08 22:27:00,
2013-05-08 15:30:00,64.2,52.2,29.68,SW,229,3.1,3.1,65,0.00,,---,0.00,VWS V13.01,2013-05-08 22:30:00,
2013-05-08 15:32:00,64.2,52.2,29.68,WNW,298,0.0,0.0,65,0.00,,---,0.00,VWS V13.01,2013-05-08 22:32:00,
2013-05-08 15:35:00,65.3,52.8,29.68,SSW,199,5.4,5.4,64,0.00,,---,0.00,VWS V13.01,2013-05-08 22:35:00,
2013-05-08 15:37:00,66.0,53.5,29.68,SW,234,3.6,5.4,64,0.00,,---,0.00,VWS V13.01,2013-05-08 22:37:00,
2013-05-08 15:40:00,66.4,53.4,29.68,West,269,4.9,4.9,63,0.00,,---,0.00,VWS V13.01,2013-05-08 22:40:00,
2013-05-08 15:42:00,66.4,53.4,29.68,NW,313,4.0,4.0,63,0.00,,---,0.00,VWS V13.01,2013-05-08 22:42:00,
2013-05-08 15:45:00,66.4,53.4,29.68,SSE,158,2.7,4.0,63,0.00,,---,0.00,VWS V13.01,2013-05-08 22:45:00,
2013-05-08 15:47:00,67.1,53.7,29.68,SW,227,0.0,0.0,62,0.00,,---,0.00,VWS V13.01,2013-05-08 22:47:00,
2013-05-08 15:50:00,67.1,53.2,29.68,SE,144,0.0,4.9,61,0.00,,---,0.00,VWS V13.01,2013-05-08 22:50:00,
2013-05-08 15:52:00,67.5,53.6,29.68,WSW,243,4.0,4.0,61,0.00,,---,0.00,VWS V13.01,2013-05-08 22:52:00,
2013-05-08 15:53:00,67.5,53.6,29.68,WSW,243,4.0,4.0,61,0.00,,---,0.00,VWS V13.01,2013-05-08 22:53:00,
2013-05-08 15:55:00,67.5,53.1,29.68,West,260,5.8,5.8,60,0.00,,---,0.00,VWS V13.01,2013-05-08 22:55:00,
2013-05-08 15:57:00,67.5,53.1,29.68,WSW,237,3.6,3.6,60,0.00,,---,0.00,VWS V13.01,2013-05-08 22:57:00,
2013-05-08 15:58:00,67.5,53.1,29.68,SW,227,3.1,3.6,60,0.00,,---,0.00,VWS V13.01,2013-05-08 22:58:00,
2013-05-08 16:01:00,67.5,53.1,29.68,SW,230,0.0,0.0,60,0.00,,---,0.00,VWS V13.01,2013-05-08 23:01:00,
2013-05-08 16:02:00,68.2,53.3,29.68,WSW,251,6.3,6.3,59,0.00,,---,0.00,VWS V13.01,2013-05-08 23:02:00,
2013-05-08 16:03:00,68.2,53.3,29.68,WSW,251,6.3,6.3,59,0.00,,---,0.00,VWS V13.01,2013-05-08 23:03:00,
2013-05-08 16:06:00,68.0,52.7,29.68,SSW,212,3.6,5.4,58,0.00,,---,0.00,VWS V13.01,2013-05-08 23:06:00,
2013-05-08 16:07:00,68.0,52.7,29.68,WSW,257,3.1,3.6,58,0.00,,---,0.00,VWS V13.01,2013-05-08 23:07:00,
2013-05-08 16:08:00,68.0,52.7,29.68,WSW,257,3.1,3.1,58,0.00,,---,0.00,VWS V13.01,2013-05-08 23:08:00,
2013-05-08 16:11:00,68.4,53.0,29.68,SSE,157,3.6,3.6,58,0.00,,---,0.00,VWS V13.01,2013-05-08 23:11:00,
2013-05-08 16:12:00,68.4,53.0,29.68,SE,144,2.7,3.6,58,0.00,,---,0.00,VWS V13.01,2013-05-08 23:12:00,
2013-05-08 16:13:00,68.4,53.0,29.68,SE,144,2.7,2.7,58,0.00,,---,0.00,VWS V13.01,2013-05-08 23:13:00,
2013-05-08 16:16:00,68.4,53.0,29.68,WSW,242,4.0,4.0,58,0.00,,---,0.00,VWS V13.01,2013-05-08 23:16:00,
2013-05-08 16:17:00,68.5,53.2,29.68,SW,229,4.0,4.0,58,0.00,,---,0.00,VWS V13.01,2013-05-08 23:17:00,
2013-05-08 16:18:00,68.5,53.2,29.68,SE,132,3.1,4.0,58,0.00,,---,0.00,VWS V13.01,2013-05-08 23:18:00,
2013-05-08 16:19:00,68.5,53.2,29.68,ESE,110,3.1,4.0,58,0.00,,---,0.00,VWS V13.01,2013-05-08 23:19:00,
2013-05-08 16:21:00,68.7,53.4,29.68,ESE,110,3.1,3.1,58,0.00,,---,0.00,VWS V13.01,2013-05-08 23:21:00,
2013-05-08 16:22:00,69.1,53.2,29.68,South,170,0.0,6.3,57,0.00,,---,0.00,VWS V13.01,2013-05-08 23:22:00,
2013-05-08 16:23:00,69.1,53.2,29.68,South,170,0.0,0.0,57,0.00,,---,0.00,VWS V13.01,2013-05-08 23:23:00,
2013-05-08 16:24:00,69.1,53.2,29.68,South,170,0.0,0.0,57,0.00,,---,0.00,VWS V13.01,2013-05-08 23:24:00,
2013-05-08 16:26:00,69.1,53.2,29.68,South,175,0.0,0.0,57,0.00,,---,0.00,VWS V13.01,2013-05-08 23:26:00,
2013-05-08 16:27:00,69.6,53.7,29.68,SSE,148,0.0,0.0,57,0.00,,---,0.00,VWS V13.01,2013-05-08 23:27:00,
2013-05-08 16:28:00,69.6,53.7,29.68,SSE,148,0.0,0.0,57,0.00,,---,0.00,VWS V13.01,2013-05-08 23:28:00,
2013-05-08 16:29:00,69.6,53.7,29.68,SSE,148,0.0,0.0,57,0.00,,---,0.00,VWS V13.01,2013-05-08 23:29:00,
2013-05-08 16:31:00,69.6,53.7,29.68,East,100,0.0,0.0,57,0.00,,---,0.00,VWS V13.01,2013-05-08 23:31:00,
2013-05-08 16:33:00,69.1,52.7,29.68,ENE,70,0.0,0.0,56,0.00,,---,0.00,VWS V13.01,2013-05-08 23:33:00,
2013-05-08 16:34:00,69.1,52.7,29.68,ENE,70,0.0,0.0,56,0.00,,---,0.00,VWS V13.01,2013-05-08 23:34:00,
2013-05-08 16:36:00,69.1,52.7,29.68,SW,229,3.1,3.1,56,0.00,,---,0.00,VWS V13.01,2013-05-08 23:36:00,
2013-05-08 16:38:00,68.2,51.9,29.68,SW,229,3.1,3.1,56,0.00,,---,0.00,VWS V13.01,2013-05-08 23:38:00,
2013-05-08 16:39:00,68.2,51.9,29.68,SW,229,3.1,3.1,56,0.00,,---,0.00,VWS V13.01,2013-05-08 23:39:00,
2013-05-08 16:41:00,68.5,52.7,29.68,WSW,240,4.0,4.0,57,0.00,,---,0.00,VWS V13.01,2013-05-08 23:41:00,
2013-05-08 16:43:00,68.5,52.7,29.68,WSW,242,2.7,4.0,57,0.00,,---,0.00,VWS V13.01,2013-05-08 23:43:00,
2013-05-08 16:44:00,68.5,52.7,29.68,WSW,242,2.7,4.0,57,0.00,,---,0.00,VWS V13.01,2013-05-08 23:44:00,
2013-05-08 16:46:00,67.8,51.6,29.68,WSW,242,2.7,2.7,56,0.00,,---,0.00,VWS V13.01,2013-05-08 23:46:00,
2013-05-08 16:48:00,67.6,51.4,29.68,West,267,2.2,2.7,56,0.00,,---,0.00,VWS V13.01,2013-05-08 23:48:00,
2013-05-08 16:49:00,67.6,51.4,29.68,South,187,0.0,2.7,56,0.00,,---,0.00,VWS V13.01,2013-05-08 23:49:00,
2013-05-08 16:52:00,68.2,52.4,29.68,SSW,209,2.7,2.7,57,0.00,,---,0.00,VWS V13.01,2013-05-08 23:52:00,
2013-05-08 16:53:00,68.4,52.5,29.68,West,278,2.7,2.7,57,0.00,,---,0.00,VWS V13.01,2013-05-08 23:53:00,
2013-05-08 16:54:00,68.4,52.5,29.68,West,278,2.7,2.7,57,0.00,,---,0.00,VWS V13.01,2013-05-08 23:54:00,
2013-05-08 16:57:00,68.5,52.7,29.68,SSE,163,2.2,2.7,57,0.00,,---,0.00,VWS V13.01,2013-05-08 23:57:00,
2013-05-08 16:58:00,68.5,52.7,29.68,SSE,163,2.2,2.2,57,0.00,,---,0.00,VWS V13.01,2013-05-08 23:58:00,
2013-05-08 16:59:00,68.5,52.2,29.68,SSE,163,2.2,2.2,56,0.00,,---,0.00,VWS V13.01,2013-05-08 23:59:00,
2013-05-08 17:02:00,68.5,52.2,29.68,ESE,122,0.0,0.0,56,0.00,,---,0.00,VWS V13.01,2013-05-09 00:02:00,
2013-05-08 17:04:00,68.5,52.2,29.68,WSW,239,3.6,3.6,56,0.00,,---,0.00,VWS V13.01,2013-05-09 00:04:00,
2013-05-08 17:07:00,67.5,51.2,29.68,West,268,2.7,2.7,56,0.00,,---,0.00,VWS V13.01,2013-05-09 00:07:00,
2013-05-08 17:09:00,67.3,51.1,29.68,West,268,2.7,2.7,56,0.00,,---,0.00,VWS V13.01,2013-05-09 00:09:00,
2013-05-08 17:10:00,67.3,51.1,29.68,West,268,2.7,2.7,56,0.00,,---,0.00,VWS V13.01,2013-05-09 00:10:00,
2013-05-08 17:12:00,67.3,51.1,29.68,NE,42,0.0,0.0,56,0.00,,---,0.00,VWS V13.01,2013-05-09 00:12:00,
2013-05-08 17:14:00,67.1,51.4,29.68,NE,42,0.0,0.0,57,0.00,,---,0.00,VWS V13.01,2013-05-09 00:14:00,
2013-05-08 17:15:00,67.1,51.4,29.68,South,176,2.7,2.7,57,0.00,,---,0.00,VWS V13.01,2013-05-09 00:15:00,
2013-05-08 17:17:00,67.6,51.9,29.68,South,176,2.7,2.7,57,0.00,,---,0.00,VWS V13.01,2013-05-09 00:17:00,
2013-05-08 17:19:00,67.6,51.9,29.68,South,183,3.1,3.6,57,0.00,,---,0.00,VWS V13.01,2013-05-09 00:19:00,
2013-05-08 17:20:00,67.6,51.9,29.68,SE,133,2.2,3.6,57,0.00,,---,0.00,VWS V13.01,2013-05-09 00:20:00,
2013-05-08 17:22:00,67.6,51.9,29.68,SE,132,0.0,0.0,57,0.00,,---,0.00,VWS V13.01,2013-05-09 00:22:00,
2013-05-08 17:24:00,67.6,51.9,29.68,SW,229,0.0,0.0,57,0.00,,---,0.00,VWS V13.01,2013-05-09 00:24:00,
2013-05-08 17:25:00,67.6,51.9,29.68,SW,229,0.0,0.0,57,0.00,,---,0.00,VWS V13.01,2013-05-09 00:25:00,
2013-05-08 17:27:00,67.8,52.0,29.68,SW,229,0.0,0.0,57,0.00,,---,0.00,VWS V13.01,2013-05-09 00:27:00,
2013-05-08 17:29:00,67.8,52.0,29.68,NE,34,2.7,2.7,57,0.00,,---,0.00,VWS V13.01,2013-05-09 00:29:00,
2013-05-08 17:30:00,67.8,52.0,29.68,NE,34,2.7,2.7,57,0.00,,---,0.00,VWS V13.01,2013-05-09 00:30:00,
2013-05-08 17:33:00,67.1,51.4,29.68,NE,38,0.0,0.0,57,0.00,,---,0.00,VWS V13.01,2013-05-09 00:33:00,
2013-05-08 17:34:00,67.1,51.4,29.68,NE,38,0.0,0.0,57,0.00,,---,0.00,VWS V13.01,2013-05-09 00:34:00,
2013-05-08 17:35:00,67.1,51.4,29.68,East,79,0.0,0.0,57,0.00,,---,0.00,VWS V13.01,2013-05-09 00:35:00,
2013-05-08 17:38:00,66.7,51.0,29.68,NNE,23,2.7,2.7,57,0.00,,---,0.00,VWS V13.01,2013-05-09 00:38:00,
2013-05-08 17:39:00,66.7,51.0,29.68,NNE,17,2.7,2.7,57,0.00,,---,0.00,VWS V13.01,2013-05-09 00:39:00,
2013-05-08 17:40:00,66.7,51.0,29.68,NNE,17,2.7,2.7,57,0.00,,---,0.00,VWS V13.01,2013-05-09 00:40:00,
2013-05-08 17:43:00,66.2,51.0,29.68,ESE,106,0.0,0.0,58,0.00,,---,0.00,VWS V13.01,2013-05-09 00:43:00,
2013-05-08 17:44:00,66.6,51.3,29.68,NE,52,0.0,0.0,58,0.00,,---,0.00,VWS V13.01,2013-05-09 00:44:00,
2013-05-08 17:45:00,66.6,51.8,29.68,NE,52,0.0,0.0,59,0.00,,---,0.00,VWS V13.01,2013-05-09 00:45:00,
2013-05-08 17:46:00,66.6,51.8,29.68,SSE,162,0.0,0.0,59,0.00,,---,0.00,VWS V13.01,2013-05-09 00:46:00,
2013-05-08 17:48:00,66.6,51.8,29.68,SSE,162,2.7,2.7,59,0.00,,---,0.00,VWS V13.01,2013-05-09 00:48:00,
2013-05-08 17:49:00,66.9,52.1,29.68,SSE,162,2.7,2.7,59,0.00,,---,0.00,VWS V13.01,2013-05-09 00:49:00,
2013-05-08 17:50:00,66.9,52.1,29.68,SSE,162,2.7,2.7,59,0.00,,---,0.00,VWS V13.01,2013-05-09 00:50:00,
2013-05-08 17:51:00,66.9,52.1,29.68,SSE,162,2.7,2.7,59,0.00,,---,0.00,VWS V13.01,2013-05-09 00:51:00,
2013-05-08 17:53:00,66.9,52.1,29.68,ENE,71,2.7,2.7,59,0.00,,---,0.00,VWS V13.01,2013-05-09 00:53:00,
2013-05-08 17:54:00,66.9,52.1,29.68,SE,139,5.4,5.4,59,0.00,,---,0.00,VWS V13.01,2013-05-09 00:54:00,
2013-05-08 17:55:00,66.9,52.1,29.68,SE,139,5.4,5.4,59,0.00,,---,0.00,VWS V13.01,2013-05-09 00:55:00,
2013-05-08 17:56:00,66.9,52.1,29.68,SSE,159,2.7,5.4,59,0.00,,---,0.00,VWS V13.01,2013-05-09 00:56:00,
2013-05-08 17:58:00,66.6,52.3,29.68,SE,143,3.6,3.6,60,0.00,,---,0.00,VWS V13.01,2013-05-09 00:58:00,
2013-05-08 17:59:00,66.6,52.3,29.68,SSE,151,3.6,3.6,60,0.00,,---,0.00,VWS V13.01,2013-05-09 00:59:00,
2013-05-08 18:00:00,66.6,52.3,29.68,ESE,121,3.6,3.6,60,0.00,,---,0.00,VWS V13.01,2013-05-09 01:00:00,
2013-05-08 18:01:00,66.6,52.3,29.68,ESE,121,3.6,3.6,60,0.00,,---,0.00,VWS V13.01,2013-05-09 01:01:00,
2013-05-08 18:04:00,66.4,52.1,29.65,ESE,121,3.6,3.6,60,0.00,,---,0.00,VWS V13.01,2013-05-09 01:04:00,
2013-05-08 18:05:00,66.4,52.1,29.65,ESE,121,3.6,3.6,60,0.00,,---,0.00,VWS V13.01,2013-05-09 01:05:00,
2013-05-08 18:06:00,66.4,52.5,29.65,SE,128,3.1,3.1,61,0.00,,---,0.00,VWS V13.01,2013-05-09 01:06:00,
2013-05-08 18:09:00,66.2,52.4,29.65,ENE,74,3.6,3.6,61,0.00,,---,0.00,VWS V13.01,2013-05-09 01:09:00,
2013-05-08 18:10:00,66.2,52.4,29.65,ESE,104,0.0,3.6,61,0.00,,---,0.00,VWS V13.01,2013-05-09 01:10:00,
2013-05-08 18:11:00,66.2,52.4,29.65,ESE,104,0.0,0.0,61,0.00,,---,0.00,VWS V13.01,2013-05-09 01:11:00,
2013-05-08 18:14:00,66.2,52.4,29.65,ENE,72,2.2,2.2,61,0.00,,---,0.00,VWS V13.01,2013-05-09 01:14:00,
2013-05-08 18:15:00,66.2,52.4,29.65,East,90,3.1,3.1,61,0.00,,---,0.00,VWS V13.01,2013-05-09 01:15:00,
2013-05-08 18:16:00,65.7,52.3,29.65,East,90,3.1,3.1,62,0.00,,---,0.00,VWS V13.01,2013-05-09 01:16:00,
2013-05-08 18:19:00,65.7,52.3,29.65,ENE,70,0.0,0.0,62,0.00,,---,0.00,VWS V13.01,2013-05-09 01:19:00,
2013-05-08 18:20:00,65.7,52.7,29.65,ENE,70,0.0,0.0,63,0.00,,---,0.00,VWS V13.01,2013-05-09 01:20:00,
2013-05-08 18:21:00,65.7,52.7,29.65,East,91,0.0,0.0,63,0.00,,---,0.00,VWS V13.01,2013-05-09 01:21:00,
2013-05-08 18:22:00,65.7,52.7,29.65,East,91,0.0,0.0,63,0.00,,---,0.00,VWS V13.01,2013-05-09 01:22:00,
2013-05-08 18:24:00,65.7,52.7,29.65,ENE,66,0.0,0.0,63,0.00,,---,0.00,VWS V13.01,2013-05-09 01:24:00,
2013-05-08 18:25:00,65.7,52.7,29.65,ENE,66,0.0,0.0,63,0.00,,---,0.00,VWS V13.01,2013-05-09 01:25:00,
2013-05-08 18:26:00,65.7,52.7,29.65,ENE,66,0.0,0.0,63,0.00,,---,0.00,VWS V13.01,2013-05-09 01:26:00,
2013-05-08 18:27:00,65.3,52.4,29.65,ENE,66,0.0,0.0,63,0.00,,---,0.00,VWS V13.01,2013-05-09 01:27:00,
2013-05-08 18:29:00,65.3,52.4,29.65,ENE,69,0.0,0.0,63,0.00,,---,0.00,VWS V13.01,2013-05-09 01:29:00,
2013-05-08 18:30:00,65.3,52.4,29.65,ENE,69,0.0,0.0,63,0.00,,---,0.00,VWS V13.01,2013-05-09 01:30:00,
2013-05-08 18:31:00,65.5,52.6,29.65,ENE,69,0.0,0.0,63,0.00,,---,0.00,VWS V13.01,2013-05-09 01:31:00,
2013-05-08 18:32:00,65.5,52.6,29.65,ENE,69,0.0,0.0,63,0.00,,---,0.00,VWS V13.01,2013-05-09 01:32:00,
2013-05-08 18:34:00,65.5,52.6,29.65,North,8,2.7,2.7,63,0.00,,---,0.00,VWS V13.01,2013-05-09 01:34:00,
2013-05-08 18:35:00,65.5,52.6,29.65,NNE,21,2.7,2.7,63,0.00,,---,0.00,VWS V13.01,2013-05-09 01:35:00,
2013-05-08 18:36:00,64.9,52.1,29.65,NNE,21,2.7,2.7,63,0.00,,---,0.00,VWS V13.01,2013-05-09 01:36:00,
2013-05-08 18:37:00,64.9,52.1,29.65,NNE,21,2.7,2.7,63,0.00,,---,0.00,VWS V13.01,2013-05-09 01:37:00,
2013-05-08 18:39:00,64.9,52.5,29.65,NNW,339,0.0,0.0,64,0.00,,---,0.00,VWS V13.01,2013-05-09 01:39:00,
2013-05-08 18:40:00,64.9,52.5,29.65,NNW,339,0.0,0.0,64,0.00,,---,0.00,VWS V13.01,2013-05-09 01:40:00,
2013-05-08 18:41:00,64.9,52.5,29.65,NNW,339,0.0,0.0,64,0.00,,---,0.00,VWS V13.01,2013-05-09 01:41:00,
2013-05-08 18:42:00,64.9,52.5,29.65,NNW,339,0.0,0.0,64,0.00,,---,0.00,VWS V13.01,2013-05-09 01:42:00,
2013-05-08 18:44:00,64.9,52.5,29.65,NNW,340,0.0,0.0,64,0.00,,---,0.00,VWS V13.01,2013-05-09 01:44:00,
2013-05-08 18:45:00,64.8,52.3,29.65,NNW,340,0.0,0.0,64,0.00,,---,0.00,VWS V13.01,2013-05-09 01:45:00,
2013-05-08 18:47:00,64.6,52.6,29.65,NNW,340,0.0,0.0,65,0.00,,---,0.00,VWS V13.01,2013-05-09 01:47:00,
2013-05-08 18:49:00,64.6,52.6,29.65,NNW,340,0.0,0.0,65,0.00,,---,0.00,VWS V13.01,2013-05-09 01:49:00,
2013-05-08 18:51:00,64.8,52.7,29.65,SSW,198,0.0,0.0,65,0.00,,---,0.00,VWS V13.01,2013-05-09 01:51:00,
2013-05-08 18:52:00,64.8,52.7,29.65,SSW,198,0.0,0.0,65,0.00,,---,0.00,VWS V13.01,2013-05-09 01:52:00,
2013-05-08 18:54:00,64.8,52.7,29.65,East,84,0.0,0.0,65,0.00,,---,0.00,VWS V13.01,2013-05-09 01:54:00,
2013-05-08 18:56:00,64.9,52.9,29.65,SSE,165,2.2,2.2,65,0.00,,---,0.00,VWS V13.01,2013-05-09 01:56:00,
2013-05-08 18:57:00,64.9,52.9,29.65,SSE,165,2.2,2.2,65,0.00,,---,0.00,VWS V13.01,2013-05-09 01:57:00,
2013-05-08 18:58:00,64.9,52.9,29.65,SSE,165,2.2,2.2,65,0.00,,---,0.00,VWS V13.01,2013-05-09 01:58:00,
2013-05-08 19:00:00,64.9,52.9,29.65,ESE,119,2.2,2.2,65,0.00,,---,0.00,VWS V13.01,2013-05-09 02:00:00,
2013-05-08 19:01:00,64.9,52.9,29.65,SSE,147,0.0,0.0,65,0.00,,---,0.00,VWS V13.01,2013-05-09 02:01:00,
2013-05-08 19:02:00,64.9,52.9,29.65,SSE,147,0.0,0.0,65,0.00,,---,0.00,VWS V13.01,2013-05-09 02:02:00,
2013-05-08 19:03:00,64.9,52.9,29.65,ENE,71,3.1,3.1,65,0.00,,---,0.00,VWS V13.01,2013-05-09 02:03:00,
2013-05-08 19:05:00,64.8,52.7,29.65,East,93,2.2,2.2,65,0.00,,---,0.00,VWS V13.01,2013-05-09 02:05:00,
2013-05-08 19:06:00,64.8,52.7,29.65,SE,140,0.0,0.0,65,0.00,,---,0.00,VWS V13.01,2013-05-09 02:06:00,
2013-05-08 19:07:00,64.8,52.7,29.65,SE,140,0.0,0.0,65,0.00,,---,0.00,VWS V13.01,2013-05-09 02:07:00,
2013-05-08 19:08:00,64.8,52.7,29.65,SE,140,0.0,0.0,65,0.00,,---,0.00,VWS V13.01,2013-05-09 02:08:00,
2013-05-08 19:10:00,64.8,52.7,29.65,SE,140,0.0,0.0,65,0.00,,---,0.00,VWS V13.01,2013-05-09 02:10:00,
2013-05-08 19:11:00,64.8,52.7,29.65,SE,140,0.0,0.0,65,0.00,,---,0.00,VWS V13.01,2013-05-09 02:11:00,
2013-05-08 19:12:00,64.2,52.6,29.65,SE,140,0.0,0.0,66,0.00,,---,0.00,VWS V13.01,2013-05-09 02:12:00,
2013-05-08 19:13:00,64.2,52.6,29.65,SE,140,0.0,0.0,66,0.00,,---,0.00,VWS V13.01,2013-05-09 02:13:00,
2013-05-08 19:15:00,64.2,52.6,29.65,East,93,3.1,3.1,66,0.00,,---,0.00,VWS V13.01,2013-05-09 02:15:00,
2013-05-08 19:17:00,64.4,52.8,29.65,East,89,0.0,0.0,66,0.00,,---,0.00,VWS V13.01,2013-05-09 02:17:00,
2013-05-08 19:18:00,64.4,52.8,29.65,East,82,0.0,0.0,66,0.00,,---,0.00,VWS V13.01,2013-05-09 02:18:00,
2013-05-08 19:20:00,64.2,53.0,29.65,East,82,0.0,0.0,67,0.00,,---,0.00,VWS V13.01,2013-05-09 02:20:00,
2013-05-08 19:22:00,64.2,53.0,29.65,East,82,0.0,0.0,67,0.00,,---,0.00,VWS V13.01,2013-05-09 02:22:00,
2013-05-08 19:23:00,64.2,53.0,29.65,ENE,74,0.0,0.0,67,0.00,,---,0.00,VWS V13.01,2013-05-09 02:23:00,
2013-05-08 19:25:00,64.2,53.0,29.65,ENE,74,0.0,0.0,67,0.00,,---,0.00,VWS V13.01,2013-05-09 02:25:00,
2013-05-08 19:27:00,64.2,53.0,29.65,ENE,74,0.0,0.0,67,0.00,,---,0.00,VWS V13.01,2013-05-09 02:27:00,
2013-05-08 19:28:00,64.2,53.0,29.65,East,83,0.0,0.0,67,0.00,,---,0.00,VWS V13.01,2013-05-09 02:28:00,
2013-05-08 19:30:00,64.0,52.9,29.65,East,83,0.0,0.0,67,0.00,,---,0.00,VWS V13.01,2013-05-09 02:30:00,
2013-05-08 19:32:00,64.0,52.9,29.65,ENE,72,0.0,0.0,67,0.00,,---,0.00,VWS V13.01,2013-05-09 02:32:00,
2013-05-08 19:33:00,64.0,52.9,29.65,ENE,72,0.0,0.0,67,0.00,,---,0.00,VWS V13.01,2013-05-09 02:33:00,
2013-05-08 19:35:00,63.7,52.9,29.65,ENE,72,0.0,0.0,68,0.00,,---,0.00,VWS V13.01,2013-05-09 02:35:00,
2013-05-08 19:37:00,63.7,52.9,29.65,ENE,72,0.0,0.0,68,0.00,,---,0.00,VWS V13.01,2013-05-09 02:37:00,
2013-05-08 19:38:00,63.7,52.9,29.65,ENE,72,0.0,0.0,68,0.00,,---,0.00,VWS V13.01,2013-05-09 02:38:00,
2013-05-08 19:41:00,63.7,52.9,29.65,ENE,72,0.0,0.0,68,0.00,,---,0.00,VWS V13.01,2013-05-09 02:41:00,
2013-05-08 19:42:00,63.7,52.9,29.65,ENE,72,0.0,0.0,68,0.00,,---,0.00,VWS V13.01,2013-05-09 02:42:00,
2013-05-08 19:43:00,63.7,52.9,29.65,ENE,72,0.0,0.0,68,0.00,,---,0.00,VWS V13.01,2013-05-09 02:43:00,
2013-05-08 19:44:00,63.7,52.9,29.65,ENE,72,0.0,0.0,68,0.00,,---,0.00,VWS V13.01,2013-05-09 02:44:00,
2013-05-08 19:46:00,63.5,52.8,29.65,ENE,72,0.0,0.0,68,0.00,,---,0.00,VWS V13.01,2013-05-09 02:46:00,
2013-05-08 19:47:00,63.3,53.0,29.65,ENE,72,0.0,0.0,69,0.00,,---,0.00,VWS V13.01,2013-05-09 02:47:00,
2013-05-08 19:48:00,63.3,53.0,29.65,ENE,72,0.0,0.0,69,0.00,,---,0.00,VWS V13.01,2013-05-09 02:48:00,
2013-05-08 19:49:00,63.1,52.8,29.65,ENE,72,0.0,0.0,69,0.00,,---,0.00,VWS V13.01,2013-05-09 02:49:00,
2013-05-08 19:51:00,63.1,52.8,29.65,ENE,72,0.0,0.0,69,0.00,,---,0.00,VWS V13.01,2013-05-09 02:51:00,
2013-05-08 19:53:00,63.0,52.6,29.65,ENE,72,0.0,0.0,69,0.00,,---,0.00,VWS V13.01,2013-05-09 02:53:00,
2013-05-08 19:54:00,63.0,52.6,29.65,ENE,72,0.0,0.0,69,0.00,,---,0.00,VWS V13.01,2013-05-09 02:54:00,
2013-05-08 19:56:00,63.0,53.0,29.65,ENE,72,0.0,0.0,70,0.00,,---,0.00,VWS V13.01,2013-05-09 02:56:00,
2013-05-08 19:58:00,62.6,52.7,29.65,ENE,72,0.0,0.0,70,0.00,,---,0.00,VWS V13.01,2013-05-09 02:58:00,
2013-05-08 19:59:00,62.6,52.7,29.65,ENE,72,0.0,0.0,70,0.00,,---,0.00,VWS V13.01,2013-05-09 02:59:00,
2013-05-08 20:01:00,62.6,52.7,29.65,ENE,72,0.0,0.0,70,0.00,,---,0.00,VWS V13.01,2013-05-09 03:01:00,
2013-05-08 20:03:00,62.6,52.7,29.65,ENE,72,0.0,0.0,70,0.00,,---,0.00,VWS V13.01,2013-05-09 03:03:00,
2013-05-08 20:04:00,62.6,52.7,29.65,ENE,72,0.0,0.0,70,0.00,,---,0.00,VWS V13.01,2013-05-09 03:04:00,
2013-05-08 20:06:00,62.6,52.7,29.65,ENE,72,0.0,0.0,70,0.00,,---,0.00,VWS V13.01,2013-05-09 03:06:00,
2013-05-08 20:08:00,62.8,52.9,29.65,ENE,72,0.0,0.0,70,0.00,,---,0.00,VWS V13.01,2013-05-09 03:08:00,
2013-05-08 20:09:00,62.8,52.9,29.65,ENE,72,0.0,0.0,70,0.00,,---,0.00,VWS V13.01,2013-05-09 03:09:00,
2013-05-08 20:11:00,62.6,52.7,29.65,ENE,72,0.0,0.0,70,0.00,,---,0.00,VWS V13.01,2013-05-09 03:11:00,
2013-05-08 20:13:00,62.6,52.7,29.65,ENE,72,0.0,0.0,70,0.00,,---,0.00,VWS V13.01,2013-05-09 03:13:00,
2013-05-08 20:14:00,62.6,52.7,29.65,ENE,72,0.0,0.0,70,0.00,,---,0.00,VWS V13.01,2013-05-09 03:14:00,
2013-05-08 20:17:00,62.1,52.9,29.65,ENE,72,0.0,0.0,72,0.00,,---,0.00,VWS V13.01,2013-05-09 03:17:00,
2013-05-08 20:18:00,62.1,52.9,29.65,ENE,72,0.0,0.0,72,0.00,,---,0.00,VWS V13.01,2013-05-09 03:18:00,
2013-05-08 20:19:00,62.1,52.9,29.65,ENE,72,0.0,0.0,72,0.00,,---,0.00,VWS V13.01,2013-05-09 03:19:00,
2013-05-08 20:20:00,62.1,52.9,29.65,ENE,72,0.0,0.0,72,0.00,,---,0.00,VWS V13.01,2013-05-09 03:20:00,
2013-05-08 20:22:00,62.1,52.6,29.65,ENE,72,0.0,0.0,71,0.00,,---,0.00,VWS V13.01,2013-05-09 03:22:00,
2013-05-08 20:23:00,62.1,52.6,29.65,ENE,72,0.0,0.0,71,0.00,,---,0.00,VWS V13.01,2013-05-09 03:23:00,
2013-05-08 20:24:00,62.1,52.6,29.65,ENE,72,0.0,0.0,71,0.00,,---,0.00,VWS V13.01,2013-05-09 03:24:00,
2013-05-08 20:25:00,62.2,52.7,29.65,ENE,72,0.0,0.0,71,0.00,,---,0.00,VWS V13.01,2013-05-09 03:25:00,
2013-05-08 20:27:00,62.2,52.7,29.65,ENE,72,0.0,0.0,71,0.00,,---,0.00,VWS V13.01,2013-05-09 03:27:00,
2013-05-08 20:29:00,62.1,52.6,29.65,ENE,72,0.0,0.0,71,0.00,,---,0.00,VWS V13.01,2013-05-09 03:29:00,
2013-05-08 20:30:00,62.1,52.6,29.65,ENE,72,0.0,0.0,71,0.00,,---,0.00,VWS V13.01,2013-05-09 03:30:00,
2013-05-08 20:31:00,62.1,52.6,29.65,ENE,72,0.0,0.0,71,0.00,,---,0.00,VWS V13.01,2013-05-09 03:31:00,
2013-05-08 20:33:00,62.1,52.6,29.65,ENE,72,0.0,0.0,71,0.00,,---,0.00,VWS V13.01,2013-05-09 03:33:00,
2013-05-08 20:34:00,61.9,52.8,29.65,ENE,72,0.0,0.0,72,0.00,,---,0.00,VWS V13.01,2013-05-09 03:34:00,
2013-05-08 20:35:00,61.9,52.8,29.65,ENE,72,0.0,0.0,72,0.00,,---,0.00,VWS V13.01,2013-05-09 03:35:00,
2013-05-08 20:36:00,61.9,52.8,29.65,ENE,72,0.0,0.0,72,0.00,,---,0.00,VWS V13.01,2013-05-09 03:36:00,
2013-05-08 20:38:00,61.7,52.6,29.65,ENE,72,0.0,0.0,72,0.00,,---,0.00,VWS V13.01,2013-05-09 03:38:00,
2013-05-08 20:39:00,61.7,52.6,29.65,ENE,72,0.0,0.0,72,0.00,,---,0.00,VWS V13.01,2013-05-09 03:39:00,
2013-05-08 20:40:00,61.7,52.6,29.65,ENE,72,0.0,0.0,72,0.00,,---,0.00,VWS V13.01,2013-05-09 03:40:00,
2013-05-08 20:41:00,61.7,52.6,29.65,ENE,72,0.0,0.0,72,0.00,,---,0.00,VWS V13.01,2013-05-09 03:41:00,
2013-05-08 20:43:00,61.7,52.6,29.65,ENE,72,0.0,0.0,72,0.00,,---,0.00,VWS V13.01,2013-05-09 03:43:00,
2013-05-08 20:44:00,61.7,52.6,29.65,ENE,72,0.0,0.0,72,0.00,,---,0.00,VWS V13.01,2013-05-09 03:44:00,
2013-05-08 20:45:00,61.7,52.6,29.65,ENE,72,0.0,0.0,72,0.00,,---,0.00,VWS V13.01,2013-05-09 03:45:00,
2013-05-08 20:46:00,61.7,52.6,29.65,ENE,72,0.0,0.0,72,0.00,,---,0.00,VWS V13.01,2013-05-09 03:46:00,
2013-05-08 20:48:00,61.3,52.2,29.65,ENE,72,0.0,0.0,72,0.00,,---,0.00,VWS V13.01,2013-05-09 03:48:00,
2013-05-08 20:50:00,61.3,52.2,29.65,ENE,72,0.0,0.0,72,0.00,,---,0.00,VWS V13.01,2013-05-09 03:50:00,
2013-05-08 20:51:00,61.3,52.2,29.65,ENE,72,0.0,0.0,72,0.00,,---,0.00,VWS V13.01,2013-05-09 03:51:00,
2013-05-08 20:53:00,61.3,52.2,29.65,ENE,72,0.0,0.0,72,0.00,,---,0.00,VWS V13.01,2013-05-09 03:53:00,
2013-05-08 20:55:00,61.3,52.2,29.65,ENE,72,0.0,0.0,72,0.00,,---,0.00,VWS V13.01,2013-05-09 03:55:00,
2013-05-08 20:56:00,61.2,52.1,29.65,ENE,72,0.0,0.0,72,0.00,,---,0.00,VWS V13.01,2013-05-09 03:56:00,
2013-05-08 20:58:00,61.0,51.9,29.65,ENE,72,0.0,0.0,72,0.00,,---,0.00,VWS V13.01,2013-05-09 03:58:00,
2013-05-08 21:00:00,61.0,51.9,29.65,ENE,72,0.0,0.0,72,0.00,,---,0.00,VWS V13.01,2013-05-09 04:00:00,
2013-05-08 21:01:00,61.0,51.9,29.65,ENE,72,0.0,0.0,72,0.00,,---,0.00,VWS V13.01,2013-05-09 04:01:00,
2013-05-08 21:06:00,60.8,51.7,29.68,ENE,72,0.0,0.0,72,0.00,,---,0.00,VWS V13.01,2013-05-09 04:06:00,
2013-05-08 21:11:00,60.6,51.9,29.68,ENE,72,0.0,0.0,73,0.00,,---,0.00,VWS V13.01,2013-05-09 04:11:00,
2013-05-08 21:16:00,60.6,51.9,29.68,ENE,72,0.0,0.0,73,0.00,,---,0.00,VWS V13.01,2013-05-09 04:16:00,
2013-05-08 21:17:00,60.6,51.9,29.68,ENE,72,0.0,0.0,73,0.00,,---,0.00,VWS V13.01,2013-05-09 04:17:00,
2013-05-08 21:21:00,60.3,51.6,29.68,ENE,72,0.0,0.0,73,0.00,,---,0.00,VWS V13.01,2013-05-09 04:21:00,
2013-05-08 21:22:00,60.3,51.6,29.68,ENE,72,0.0,0.0,73,0.00,,---,0.00,VWS V13.01,2013-05-09 04:22:00,
2013-05-08 21:26:00,60.1,51.4,29.68,ENE,72,0.0,0.0,73,0.00,,---,0.00,VWS V13.01,2013-05-09 04:26:00,
2013-05-08 21:27:00,60.1,51.4,29.68,ENE,72,0.0,0.0,73,0.00,,---,0.00,VWS V13.01,2013-05-09 04:27:00,
2013-05-08 21:31:00,59.9,51.2,29.68,ENE,72,0.0,0.0,73,0.00,,---,0.00,VWS V13.01,2013-05-09 04:31:00,
2013-05-08 21:32:00,59.7,51.1,29.68,ENE,72,0.0,0.0,73,0.00,,---,0.00,VWS V13.01,2013-05-09 04:32:00,
2013-05-08 21:36:00,59.7,51.1,29.68,ENE,72,0.0,0.0,73,0.00,,---,0.00,VWS V13.01,2013-05-09 04:36:00,
2013-05-08 21:37:00,59.7,51.1,29.68,ENE,72,0.0,0.0,73,0.00,,---,0.00,VWS V13.01,2013-05-09 04:37:00,
2013-05-08 21:41:00,59.4,51.1,29.68,ENE,72,0.0,0.0,74,0.00,,---,0.00,VWS V13.01,2013-05-09 04:41:00,
2013-05-08 21:42:00,59.4,51.1,29.68,ENE,72,0.0,0.0,74,0.00,,---,0.00,VWS V13.01,2013-05-09 04:42:00,
2013-05-08 21:43:00,59.4,51.1,29.68,ENE,72,0.0,0.0,74,0.00,,---,0.00,VWS V13.01,2013-05-09 04:43:00,
2013-05-08 21:46:00,59.4,51.1,29.68,ENE,72,0.0,0.0,74,0.00,,---,0.00,VWS V13.01,2013-05-09 04:46:00,
2013-05-08 21:47:00,59.4,51.1,29.68,ENE,72,0.0,0.0,74,0.00,,---,0.00,VWS V13.01,2013-05-09 04:47:00,
2013-05-08 21:48:00,59.4,51.1,29.68,ENE,72,0.0,0.0,74,0.00,,---,0.00,VWS V13.01,2013-05-09 04:48:00,
2013-05-08 21:52:00,59.2,50.9,29.68,ENE,72,0.0,0.0,74,0.00,,---,0.00,VWS V13.01,2013-05-09 04:52:00,
2013-05-08 21:53:00,59.2,50.9,29.68,ENE,72,0.0,0.0,74,0.00,,---,0.00,VWS V13.01,2013-05-09 04:53:00,
2013-05-08 21:57:00,59.0,50.7,29.68,ENE,72,0.0,0.0,74,0.00,,---,0.00,VWS V13.01,2013-05-09 04:57:00,
2013-05-08 21:58:00,59.0,50.7,29.68,ENE,72,0.0,0.0,74,0.00,,---,0.00,VWS V13.01,2013-05-09 04:58:00,
2013-05-08 22:02:00,58.8,50.9,29.68,ENE,72,0.0,0.0,75,0.00,,---,0.00,VWS V13.01,2013-05-09 05:02:00,
2013-05-08 22:03:00,58.8,50.9,29.68,ENE,72,0.0,0.0,75,0.00,,---,0.00,VWS V13.01,2013-05-09 05:03:00,
2013-05-08 22:07:00,58.6,50.8,29.68,ENE,72,0.0,0.0,75,0.00,,---,0.00,VWS V13.01,2013-05-09 05:07:00,
2013-05-08 22:08:00,58.6,50.8,29.68,ENE,72,0.0,0.0,75,0.00,,---,0.00,VWS V13.01,2013-05-09 05:08:00,
2013-05-08 22:12:00,58.6,50.8,29.68,ENE,72,0.0,0.0,75,0.00,,---,0.00,VWS V13.01,2013-05-09 05:12:00,
2013-05-08 22:13:00,58.5,50.6,29.68,ENE,72,0.0,0.0,75,0.00,,---,0.00,VWS V13.01,2013-05-09 05:13:00,
2013-05-08 22:17:00,58.5,50.6,29.68,ENE,72,0.0,0.0,75,0.00,,---,0.00,VWS V13.01,2013-05-09 05:17:00,
2013-05-08 22:18:00,58.3,50.4,29.68,ENE,72,0.0,0.0,75,0.00,,---,0.00,VWS V13.01,2013-05-09 05:18:00,
2013-05-08 22:22:00,58.1,50.6,29.68,ENE,72,0.0,0.0,76,0.00,,---,0.00,VWS V13.01,2013-05-09 05:22:00,
2013-05-08 22:23:00,58.1,50.6,29.68,ENE,72,0.0,0.0,76,0.00,,---,0.00,VWS V13.01,2013-05-09 05:23:00,
2013-05-08 22:27:00,57.9,50.4,29.68,ENE,72,0.0,0.0,76,0.00,,---,0.00,VWS V13.01,2013-05-09 05:27:00,
2013-05-08 22:28:00,57.9,50.4,29.68,ENE,72,0.0,0.0,76,0.00,,---,0.00,VWS V13.01,2013-05-09 05:28:00,
2013-05-08 22:29:00,57.9,50.4,29.68,ENE,72,0.0,0.0,76,0.00,,---,0.00,VWS V13.01,2013-05-09 05:29:00,
2013-05-08 22:32:00,57.7,50.2,29.68,ENE,72,0.0,0.0,76,0.00,,---,0.00,VWS V13.01,2013-05-09 05:32:00,
2013-05-08 22:33:00,57.7,50.2,29.68,ENE,72,0.0,0.0,76,0.00,,---,0.00,VWS V13.01,2013-05-09 05:33:00,
2013-05-08 22:34:00,57.7,50.2,29.68,ENE,72,0.0,0.0,76,0.00,,---,0.00,VWS V13.01,2013-05-09 05:34:00,
2013-05-08 22:37:00,57.7,50.2,29.68,ENE,72,0.0,0.0,76,0.00,,---,0.00,VWS V13.01,2013-05-09 05:37:00,
2013-05-08 22:38:00,57.6,50.1,29.68,ENE,72,0.0,0.0,76,0.00,,---,0.00,VWS V13.01,2013-05-09 05:38:00,
2013-05-08 22:39:00,57.6,50.1,29.68,ENE,72,0.0,0.0,76,0.00,,---,0.00,VWS V13.01,2013-05-09 05:39:00,
2013-05-08 22:42:00,57.6,50.1,29.68,ENE,72,0.0,0.0,76,0.00,,---,0.00,VWS V13.01,2013-05-09 05:42:00,
2013-05-08 22:43:00,57.6,50.1,29.68,ENE,72,0.0,0.0,76,0.00,,---,0.00,VWS V13.01,2013-05-09 05:43:00,
2013-05-08 22:44:00,57.4,50.2,29.68,ENE,72,0.0,0.0,77,0.00,,---,0.00,VWS V13.01,2013-05-09 05:44:00,
2013-05-08 22:47:00,57.4,50.2,29.68,ENE,72,0.0,0.0,77,0.00,,---,0.00,VWS V13.01,2013-05-09 05:47:00,
2013-05-08 22:48:00,57.4,50.2,29.68,ENE,72,0.0,0.0,77,0.00,,---,0.00,VWS V13.01,2013-05-09 05:48:00,
2013-05-08 22:49:00,57.4,50.2,29.68,ENE,72,0.0,0.0,77,0.00,,---,0.00,VWS V13.01,2013-05-09 05:49:00,
2013-05-08 22:52:00,57.2,50.4,29.68,ENE,72,0.0,0.0,78,0.00,,---,0.00,VWS V13.01,2013-05-09 05:52:00,
2013-05-08 22:53:00,57.2,50.4,29.68,ENE,72,0.0,0.0,78,0.00,,---,0.00,VWS V13.01,2013-05-09 05:53:00,
2013-05-08 22:54:00,57.0,50.2,29.68,ENE,72,0.0,0.0,78,0.00,,---,0.00,VWS V13.01,2013-05-09 05:54:00,
2013-05-08 22:55:00,57.0,50.2,29.68,ENE,72,0.0,0.0,78,0.00,,---,0.00,VWS V13.01,2013-05-09 05:55:00,
2013-05-08 22:58:00,57.0,50.2,29.68,ENE,72,0.0,0.0,78,0.00,,---,0.00,VWS V13.01,2013-05-09 05:58:00,
2013-05-08 22:59:00,57.0,50.2,29.68,ENE,72,0.0,0.0,78,0.00,,---,0.00,VWS V13.01,2013-05-09 05:59:00,
2013-05-08 23:00:00,56.8,50.1,29.68,ENE,72,0.0,0.0,78,0.00,,---,0.00,VWS V13.01,2013-05-09 06:00:00,
2013-05-08 23:03:00,56.8,50.1,29.68,ENE,72,0.0,0.0,78,0.00,,---,0.00,VWS V13.01,2013-05-09 06:03:00,
2013-05-08 23:04:00,56.8,50.1,29.68,ENE,72,0.0,0.0,78,0.00,,---,0.00,VWS V13.01,2013-05-09 06:04:00,
2013-05-08 23:05:00,56.8,50.1,29.68,ENE,72,0.0,0.0,78,0.00,,---,0.00,VWS V13.01,2013-05-09 06:05:00,
2013-05-08 23:08:00,56.8,50.1,29.68,ENE,72,0.0,0.0,78,0.00,,---,0.00,VWS V13.01,2013-05-09 06:08:00,
2013-05-08 23:09:00,56.7,49.9,29.68,ENE,72,0.0,0.0,78,0.00,,---,0.00,VWS V13.01,2013-05-09 06:09:00,
2013-05-08 23:10:00,56.7,49.9,29.68,ENE,72,0.0,0.0,78,0.00,,---,0.00,VWS V13.01,2013-05-09 06:10:00,
2013-05-08 23:13:00,56.7,49.9,29.68,ENE,72,0.0,0.0,78,0.00,,---,0.00,VWS V13.01,2013-05-09 06:13:00,
2013-05-08 23:14:00,56.7,49.9,29.68,ENE,72,0.0,0.0,78,0.00,,---,0.00,VWS V13.01,2013-05-09 06:14:00,
2013-05-08 23:15:00,56.7,49.9,29.68,ENE,72,0.0,0.0,78,0.00,,---,0.00,VWS V13.01,2013-05-09 06:15:00,
2013-05-08 23:18:00,56.5,49.7,29.68,ENE,72,0.0,0.0,78,0.00,,---,0.00,VWS V13.01,2013-05-09 06:18:00,
2013-05-08 23:19:00,56.5,49.7,29.68,ENE,72,0.0,0.0,78,0.00,,---,0.00,VWS V13.01,2013-05-09 06:19:00,
2013-05-08 23:20:00,56.5,49.7,29.68,ENE,72,0.0,0.0,78,0.00,,---,0.00,VWS V13.01,2013-05-09 06:20:00,
2013-05-08 23:23:00,56.3,49.9,29.68,ENE,72,0.0,0.0,79,0.00,,---,0.00,VWS V13.01,2013-05-09 06:23:00,
2013-05-08 23:24:00,56.3,49.9,29.68,ENE,72,0.0,0.0,79,0.00,,---,0.00,VWS V13.01,2013-05-09 06:24:00,
2013-05-08 23:26:00,56.3,49.9,29.68,ENE,72,0.0,0.0,79,0.00,,---,0.00,VWS V13.01,2013-05-09 06:26:00,
2013-05-08 23:28:00,56.1,49.7,29.68,ENE,72,0.0,0.0,79,0.00,,---,0.00,VWS V13.01,2013-05-09 06:28:00,
2013-05-08 23:29:00,56.1,49.7,29.68,ENE,72,0.0,0.0,79,0.00,,---,0.00,VWS V13.01,2013-05-09 06:29:00,
2013-05-08 23:30:00,56.1,49.7,29.68,ENE,72,0.0,0.0,79,0.00,,---,0.00,VWS V13.01,2013-05-09 06:30:00,
2013-05-08 23:31:00,56.1,49.7,29.68,ENE,72,0.0,0.0,79,0.00,,---,0.00,VWS V13.01,2013-05-09 06:31:00,
2013-05-08 23:33:00,56.1,49.7,29.71,ENE,72,0.0,0.0,79,0.00,,---,0.00,VWS V13.01,2013-05-09 06:33:00,
2013-05-08 23:34:00,56.1,49.7,29.71,ENE,72,0.0,0.0,79,0.00,,---,0.00,VWS V13.01,2013-05-09 06:34:00,
2013-05-08 23:35:00,56.1,49.7,29.71,ENE,72,0.0,0.0,79,0.00,,---,0.00,VWS V13.01,2013-05-09 06:35:00,
2013-05-08 23:36:00,56.1,49.7,29.71,ENE,72,0.0,0.0,79,0.00,,---,0.00,VWS V13.01,2013-05-09 06:36:00,
2013-05-08 23:38:00,55.9,49.5,29.71,ENE,72,0.0,0.0,79,0.00,,---,0.00,VWS V13.01,2013-05-09 06:38:00,
2013-05-08 23:39:00,55.9,49.5,29.71,ENE,72,0.0,0.0,79,0.00,,---,0.00,VWS V13.01,2013-05-09 06:39:00,
2013-05-08 23:40:00,55.9,49.5,29.71,ENE,72,0.0,0.0,79,0.00,,---,0.00,VWS V13.01,2013-05-09 06:40:00,
2013-05-08 23:41:00,55.9,49.5,29.71,ENE,72,0.0,0.0,79,0.00,,---,0.00,VWS V13.01,2013-05-09 06:41:00,
2013-05-08 23:43:00,55.9,49.5,29.71,ENE,72,0.0,0.0,79,0.00,,---,0.00,VWS V13.01,2013-05-09 06:43:00,
2013-05-08 23:44:00,55.9,49.5,29.71,ENE,72,0.0,0.0,79,0.00,,---,0.00,VWS V13.01,2013-05-09 06:44:00,
2013-05-08 23:45:00,55.8,49.4,29.71,ENE,72,0.0,0.0,79,0.00,,---,0.00,VWS V13.01,2013-05-09 06:45:00,
2013-05-08 23:46:00,55.8,49.4,29.71,ENE,72,0.0,0.0,79,0.00,,---,0.00,VWS V13.01,2013-05-09 06:46:00,
2013-05-08 23:48:00,55.6,49.2,29.71,ENE,72,0.0,0.0,79,0.00,,---,0.00,VWS V13.01,2013-05-09 06:48:00,
2013-05-08 23:49:00,55.6,49.2,29.71,ENE,72,0.0,0.0,79,0.00,,---,0.00,VWS V13.01,2013-05-09 06:49:00,
2013-05-08 23:50:00,55.6,49.2,29.71,ENE,72,0.0,0.0,79,0.00,,---,0.00,VWS V13.01,2013-05-09 06:50:00,
2013-05-08 23:51:00,55.6,49.2,29.71,ENE,72,0.0,0.0,79,0.00,,---,0.00,VWS V13.01,2013-05-09 06:51:00,
2013-05-08 23:53:00,55.6,49.2,29.71,ENE,72,0.0,0.0,79,0.00,,---,0.00,VWS V13.01,2013-05-09 06:53:00,
2013-05-08 23:54:00,55.6,49.2,29.71,ENE,72,0.0,0.0,79,0.00,,---,0.00,VWS V13.01,2013-05-09 06:54:00,
2013-05-08 23:55:00,55.6,49.2,29.71,ENE,72,0.0,0.0,79,0.00,,---,0.00,VWS V13.01,2013-05-09 06:55:00,
2013-05-08 23:56:00,55.4,49.0,29.71,ENE,72,0.0,0.0,79,0.00,,---,0.00,VWS V13.01,2013-05-09 06:56:00,
2013-05-08 23:58:00,55.4,49.0,29.71,ENE,72,0.0,0.0,79,0.00,,---,0.00,VWS V13.01,2013-05-09 06:58:00,